<- Previous Day | Today | Next Day ->

All Data for 07 June 2020

 

Time A - D Temp A - D Dew Point A - D Humidity A - D Pressure A - D Wind A - D Wind Dir Gust A - D Rain Rate A - D Rain Total
00:00 11.6 9.3 86 1006.5 7.6 NW 9.2 0.0 0.0
00:01 11.6 9.3 86 1006.4 6.9 W 9.2 0.0 0.0
00:02 11.6 9.3 86 1006.4 6.9 W 9.2 0.0 0.0
00:03 11.6 9.3 86 1006.4 6.9 W 9.2 0.0 0.0
00:04 11.6 9.5 87 1006.6 6.9 W 9.2 0.0 0.0
00:05 11.6 9.5 87 1006.4 6.9 SW 9.2 0.0 0.0
00:06 11.6 9.5 87 1006.4 3.8 SW 9.2 0.0 0.0
00:07 11.6 9.5 87 1006.3 6.0 SSW 9.2 0.0 0.0
00:08 11.6 9.5 87 1006.5 6.9 SW 9.2 0.0 0.0
00:09 11.6 9.5 87 1006.2 5.4 W 9.2 0.0 0.0
00:10 11.6 9.5 87 1006.3 5.4 S 9.2 0.0 0.0
00:12 11.6 9.5 87 1006.4 5.4 SW 6.9 0.0 0.0
00:13 11.6 9.5 87 1006.6 6.9 SW 6.9 0.0 0.0
00:14 11.6 9.5 87 1006.4 9.8 SW 9.8 0.0 0.0
00:15 11.6 9.5 87 1006.3 11.4 SW 11.4 0.0 0.0
00:16 11.6 9.5 87 1006.3 6.9 S 11.4 0.0 0.0
00:17 11.6 9.5 87 1006.3 9.8 SW 11.4 0.0 0.0
00:18 11.6 9.5 87 1006.4 10.7 W 11.4 0.0 0.0
00:19 11.6 9.5 87 1006.4 10.7 W 11.4 0.0 0.0
00:20 11.6 9.5 87 1006.5 6.9 SW 11.4 0.0 0.0
00:21 11.6 9.5 87 1006.4 6.9 W 11.4 0.0 0.0
00:22 11.6 9.5 87 1006.3 5.4 SW 11.4 0.0 0.0
00:23 11.6 9.5 87 1006.5 8.3 W 11.4 0.0 0.0
00:24 11.6 9.5 87 1006.4 10.7 N 11.4 0.0 0.0
00:25 11.6 9.5 87 1006.4 8.3 SW 11.4 0.0 0.0
00:26 11.6 9.5 87 1006.6 8.3 E 10.7 0.0 0.0
00:27 11.6 9.5 87 1006.5 8.3 SW 10.7 0.0 0.0
00:28 11.6 9.5 87 1006.5 7.6 S 10.7 0.0 0.0
00:30 11.6 9.5 87 1006.2 6.9 W 10.7 0.0 0.0
00:31 11.6 9.5 87 1006.4 11.4 SW 11.4 0.0 0.0
00:32 11.6 9.5 87 1006.4 11.4 SW 11.4 0.0 0.0
00:33 11.6 9.5 87 1006.3 7.6 W 12.1 0.0 0.0
00:34 11.6 9.5 87 1006.4 6.0 W 12.1 0.0 0.0
00:35 11.6 9.5 87 1006.4 7.6 SW 12.1 0.0 0.0
00:36 11.6 9.5 87 1006.4 6.9 NNW 12.1 0.0 0.0
00:37 11.6 9.5 87 1006.3 6.9 W 12.1 0.0 0.0
00:38 11.6 9.5 87 1006.3 6.0 SW 12.1 0.0 0.0
00:39 11.6 9.5 87 1006.5 4.5 SW 12.1 0.0 0.0
00:40 11.6 9.5 87 1006.5 4.5 SW 12.1 0.8 0.1
00:41 11.6 9.5 87 1006.3 6.0 SW 12.1 1.5 0.1
00:42 11.5 9.4 87 1006.5 6.0 SE 12.1 2.3 0.2
00:43 11.5 9.6 88 1006.5 5.4 W 12.1 2.3 0.2
00:44 11.5 9.6 88 1006.5 5.4 SW 7.6 2.3 0.2
00:45 11.5 9.6 88 1006.5 10.7 SW 10.7 2.3 0.3
00:47 11.5 9.6 88 1006.6 8.3 SW 10.7 1.5 0.4
00:48 11.5 9.6 88 1006.6 8.3 SW 10.7 3.0 0.4
00:49 11.5 9.6 88 1006.7 5.4 SW 10.7 4.5 0.7
00:50 11.5 9.6 88 1006.6 6.0 W 10.7 5.3 0.8
00:51 11.5 9.6 88 1006.7 10.7 W 10.7 6.0 0.8
00:52 11.5 9.6 88 1006.8 10.7 W 10.7 6.0 0.8
00:53 11.4 9.7 89 1006.7 13.6 NW 13.6 4.5 0.8
00:54 11.4 9.7 89 1006.7 13.6 NW 13.6 3.0 0.8
00:55 11.3 9.6 89 1006.6 13.6 SW 13.6 1.5 0.8
00:56 11.3 9.6 89 1006.6 13.6 W 13.6 0.8 0.8
00:57 11.3 9.6 89 1006.7 11.4 W 13.6 0.0 0.8
00:58 11.2 9.5 89 1006.5 9.2 W 13.6 0.0 0.8
00:59 11.2 9.5 89 1006.7 9.8 SW 13.6 0.8 0.9
01:00 11.2 9.5 89 1006.6 10.7 SW 13.6 0.8 0.9
01:01 11.2 9.5 89 1006.6 10.7 SW 13.6 0.8 0.9
01:02 11.2 9.5 89 1006.7 10.7 SW 13.6 0.8 0.9
01:03 11.2 9.5 89 1006.4 10.7 SW 13.6 0.8 0.9
01:04 11.2 9.5 89 1006.6 10.7 SW 13.6 0.0 0.9
01:06 11.0 9.4 90 1006.5 9.8 S 11.4 0.0 0.9
01:07 11.0 9.4 90 1006.6 9.8 W 10.7 0.8 0.9
01:08 11.0 9.4 90 1006.6 5.4 SW 10.7 0.8 0.9
01:09 11.0 9.4 90 1006.5 13.0 S 13.0 0.8 0.9
01:10 11.0 9.4 90 1006.7 12.1 SE 13.0 0.8 0.9
01:11 11.0 9.4 90 1006.9 9.8 N 13.0 0.8 0.9
01:12 11.0 9.4 90 1006.5 10.7 SW 13.0 0.0 0.9
01:13 10.9 9.3 90 1006.6 7.6 SW 13.0 0.0 0.9
01:14 10.9 9.3 90 1006.6 8.3 W 13.0 0.0 0.9
01:15 10.9 9.3 90 1006.6 8.3 NW 13.0 0.8 1.0
01:16 10.9 9.3 90 1006.8 10.7 SW 13.0 0.8 1.0
01:17 10.9 9.3 90 1006.6 9.2 W 13.0 0.8 1.0
01:18 10.9 9.5 91 1006.5 7.6 SW 13.0 0.8 1.0
01:19 10.9 9.5 91 1006.5 7.6 SW 13.0 0.8 1.0
01:20 10.8 9.4 91 1006.6 9.2 W 13.0 0.0 1.0
01:21 10.8 9.4 91 1006.9 9.2 W 13.0 0.0 1.1
01:23 10.8 9.4 91 1006.6 5.4 SW 13.0 1.5 1.2
01:24 10.8 9.4 91 1006.7 5.4 S 13.0 2.3 1.2
01:25 10.8 9.4 91 1006.6 6.9 NW 13.0 2.3 1.2
01:26 10.8 9.4 91 1006.7 11.4 SW 11.4 2.3 1.2
01:27 10.8 9.4 91 1006.6 13.0 SW 13.0 1.5 1.2
01:28 10.8 9.4 91 1006.8 11.4 ENE 13.0 0.8 1.2
01:29 10.8 9.4 91 1006.7 8.3 SW 13.0 0.0 1.2
01:30 10.8 9.4 91 1006.6 11.4 NW 13.0 0.0 1.2
01:31 10.8 9.4 91 1006.6 8.3 N 13.0 0.0 1.2
01:32 10.7 9.3 91 1006.7 5.4 S 13.0 0.0 1.2
01:33 10.7 9.3 91 1006.7 5.4 W 13.0 0.0 1.2
01:34 10.7 9.3 91 1006.6 5.4 NW 13.0 0.0 1.2
01:35 10.7 9.3 91 1006.7 5.4 NW 13.0 0.8 1.3
01:36 10.7 9.5 92 1006.8 7.6 NE 13.0 0.8 1.3
01:38 10.7 9.5 92 1006.6 7.6 S 11.4 0.8 1.3
01:39 10.6 9.4 92 1006.8 7.6 NW 11.4 1.5 1.4
01:40 10.6 9.4 92 1006.7 4.5 SW 8.3 1.5 1.5
01:41 10.6 9.4 92 1006.9 9.2 SW 9.2 3.0 1.6
01:42 10.6 9.4 92 1006.7 6.9 SW 9.2 3.8 1.6
01:43 10.6 9.4 92 1006.7 4.5 W 9.2 3.8 1.6
01:44 10.6 9.4 92 1006.8 4.5 W 9.2 3.8 1.6
01:45 10.6 9.4 92 1006.9 6.0 W 9.2 3.0 1.6
01:46 10.6 9.4 92 1006.8 7.6 W 9.2 2.3 1.7
01:47 10.6 9.4 92 1006.8 7.6 W 9.2 1.5 1.7
01:48 10.6 9.4 92 1006.7 4.5 S 9.2 1.5 1.7
01:49 10.6 9.4 92 1006.6 8.3 SW 9.2 0.8 1.7
01:50 10.6 9.4 92 1006.8 5.4 SE 9.2 1.5 1.8
01:51 10.6 9.4 92 1006.6 3.8 S 9.2 0.8 1.8
01:52 10.6 9.4 92 1006.7 6.9 S 9.8 0.8 1.8
01:54 10.6 9.4 92 1006.8 6.9 NW 9.8 0.8 1.8
01:55 10.6 9.4 92 1006.6 6.9 SW 9.8 0.8 1.8
01:56 10.6 9.5 93 1006.8 6.0 SW 9.8 0.8 1.8
01:57 10.6 9.5 93 1006.8 6.0 W 9.8 0.8 1.9
01:58 10.6 9.5 93 1006.6 6.0 SW 9.8 1.5 1.9
01:59 10.6 9.5 93 1006.7 6.0 WSW 9.8 1.5 1.9
02:00 10.6 9.5 93 1006.6 6.0 SW 9.8 0.8 1.9
02:01 10.5 9.4 93 1006.7 6.9 W 9.8 0.8 1.9
02:02 10.5 9.4 93 1006.5 8.3 SW 8.3 0.8 1.9
02:03 10.5 9.4 93 1006.7 6.0 SW 8.3 0.0 1.9
02:04 10.5 9.4 93 1006.6 6.9 W 9.8 0.8 2.0
02:05 10.5 9.4 93 1006.4 6.9 W 9.8 0.8 2.0
02:06 10.5 9.4 93 1006.7 7.6 W 9.8 0.8 2.0
02:08 10.5 9.4 93 1006.7 5.4 N 9.8 1.5 2.1
02:09 10.5 9.4 93 1006.7 3.8 W 9.8 3.0 2.3
02:10 10.5 9.4 93 1006.5 5.4 W 9.8 3.8 2.3
02:11 10.5 9.6 94 1006.6 5.4 SW 9.8 3.8 2.3
02:12 10.5 9.6 94 1006.6 4.5 SW 9.8 3.8 2.3
02:13 10.5 9.6 94 1006.7 3.1 NNW 9.8 3.0 2.3
02:14 10.5 9.6 94 1006.7 3.1 NNW 8.3 1.5 2.3
02:15 10.5 9.6 94 1006.6 3.1 NNW 8.3 0.8 2.3
02:16 10.6 9.7 94 1006.6 2.2 WSW 8.3 2.3 2.5
02:17 10.6 9.7 94 1006.8 3.8 W 6.9 3.0 2.5
02:18 10.6 9.7 94 1006.6 4.5 S 5.4 3.0 2.5
02:19 10.6 9.7 94 1006.7 6.0 S 6.0 3.0 2.6
02:20 10.6 9.7 94 1006.7 3.1 W 6.0 3.0 2.6
02:21 10.6 9.7 94 1006.8 5.4 NW 6.0 2.3 2.6
02:23 10.6 9.7 94 1006.8 3.8 NW 6.0 1.5 2.7
02:24 10.6 9.7 94 1006.8 3.1 S 6.0 1.5 2.8
02:25 10.6 9.8 95 1006.7 8.3 NW 8.3 5.3 3.1
02:26 10.6 9.8 95 1006.7 5.4 NW 8.3 6.0 3.3
02:27 10.6 9.8 95 1006.8 6.9 W 8.3 7.6 3.3
02:28 10.6 9.8 95 1006.5 6.9 SW 8.3 7.6 3.3
02:29 10.6 9.8 95 1006.6 6.9 SW 8.3 7.6 3.3
02:30 10.6 9.8 95 1006.7 6.9 NW 8.3 4.5 3.4
02:31 10.6 9.8 95 1006.8 5.4 SW 8.3 3.8 3.5
02:32 10.6 9.8 95 1006.8 7.6 W 9.2 3.0 3.6
02:33 10.6 9.8 95 1006.6 6.0 SW 9.2 4.5 3.7
02:34 10.6 9.8 95 1006.9 6.0 S 9.2 3.8 3.7
02:35 10.6 9.8 95 1006.8 9.2 SW 9.2 3.0 3.7
02:37 10.6 9.8 95 1006.6 9.2 N 9.2 2.3 3.7
02:38 10.6 9.8 95 1006.5 9.2 SE 9.2 0.8 3.7
02:39 10.5 9.7 95 1006.5 8.3 W 9.2 0.8 3.7
02:40 10.5 9.7 95 1006.8 8.3 W 9.2 0.8 3.7
02:41 10.5 9.7 95 1006.6 8.3 SW 9.2 0.8 3.7
02:42 10.5 9.7 95 1006.7 8.3 S 9.2 0.0 3.8
02:43 10.5 9.7 95 1006.7 8.3 S 9.2 0.8 3.8
02:44 10.5 9.7 95 1006.5 7.6 SW 9.2 0.8 3.8
02:45 10.5 9.7 95 1006.9 9.2 SW 9.2 0.8 3.8
02:46 10.5 9.7 95 1006.6 9.2 SW 9.2 0.8 3.8
02:47 10.5 9.7 95 1006.6 9.2 NW 9.2 0.8 3.8
02:48 10.5 9.7 95 1006.8 7.6 SW 9.2 0.0 3.8
02:49 10.5 9.7 95 1006.8 7.6 SW 9.2 0.0 3.8
02:50 10.5 9.9 96 1006.7 8.3 W 9.2 0.0 3.8
02:51 10.5 9.9 96 1006.7 7.6 SW 9.2 0.0 3.8
02:53 10.5 9.9 96 1006.5 7.6 WSW 9.2 0.0 3.8
02:54 10.5 9.9 96 1006.5 6.9 SW 9.2 0.0 3.8
02:55 10.5 9.9 96 1006.7 7.6 W 9.2 0.0 3.8
02:56 10.5 9.9 96 1006.7 7.6 S 9.2 0.0 3.8
02:57 10.5 9.9 96 1006.8 6.9 S 8.3 0.0 3.8
02:58 10.5 9.9 96 1006.6 5.4 SW 8.3 0.0 3.8
02:59 10.5 9.9 96 1006.6 5.4 SW 8.3 0.0 3.8
03:00 10.5 9.9 96 1006.6 8.3 SW 8.3 0.0 3.8
03:01 10.5 9.9 96 1006.8 8.3 SW 8.3 0.0 3.8
03:02 10.5 9.9 96 1006.7 8.3 SW 8.3 0.0 3.8
03:03 10.5 9.9 96 1006.5 8.3 SW 8.3 0.0 3.8
03:04 10.5 9.9 96 1006.6 8.3 SW 8.3 0.0 3.8
03:05 10.5 9.9 96 1006.7 8.3 SW 8.3 0.0 3.8
03:06 10.5 9.9 96 1006.7 8.3 SW 8.3 0.0 3.8
03:08 10.5 9.9 96 1006.7 7.6 SW 8.3 1.5 3.9
03:09 10.4 9.8 96 1006.6 7.6 WSW 8.3 1.5 3.9
03:10 10.4 9.8 96 1006.6 6.0 N 8.3 1.5 3.9
03:11 10.4 9.8 96 1006.7 6.0 NW 8.3 1.5 3.9
03:12 10.4 9.8 96 1006.6 12.1 N 12.1 0.0 3.9
03:13 10.4 9.8 96 1006.9 7.6 SW 12.1 0.0 3.9
03:14 10.4 9.8 96 1006.9 7.6 SW 12.1 0.0 3.9
03:15 10.4 9.8 96 1006.7 6.0 W 12.1 0.8 4.0
03:16 10.4 9.8 96 1006.7 7.6 W 12.1 0.8 4.0
03:17 10.4 9.8 96 1006.6 7.6 WSW 12.1 0.8 4.0
03:18 10.3 9.7 96 1006.5 6.0 W 12.1 0.8 4.0
03:19 10.3 9.7 96 1006.8 6.0 W 12.1 1.5 4.0
03:20 10.3 9.7 96 1006.6 6.9 W 12.1 0.8 4.0
03:21 10.3 9.7 96 1006.7 6.0 W 12.1 0.8 4.0
03:23 10.3 9.7 96 1006.4 8.3 W 8.3 1.5 4.1
03:24 10.3 9.7 96 1006.6 6.9 SW 8.3 0.8 4.2
03:25 10.3 9.7 96 1006.6 5.4 SW 8.3 1.5 4.2
03:26 10.3 9.7 96 1006.5 6.0 SW 8.3 1.5 4.2
03:27 10.3 9.7 96 1006.6 6.0 W 8.3 1.5 4.2
03:28 10.3 9.7 96 1006.5 5.4 W 8.3 1.5 4.3
03:29 10.3 9.7 96 1006.5 4.5 SW 8.3 3.0 4.3
03:30 10.3 9.7 96 1006.7 3.8 SW 8.3 2.3 4.3
03:31 10.3 9.7 96 1006.7 4.5 W 8.3 3.8 4.5
03:32 10.3 9.7 96 1006.6 4.5 S 8.3 5.3 4.7
03:33 10.3 9.7 96 1006.7 4.5 SW 8.3 5.3 4.7
03:34 10.3 9.7 96 1006.5 5.4 SW 6.9 4.5 4.7
03:35 10.3 9.7 96 1006.5 8.3 WNW 8.3 4.5 4.7
03:37 10.3 9.7 96 1006.6 6.0 W 8.3 1.5 4.7
03:38 10.3 9.7 96 1006.5 6.0 W 8.3 0.8 4.7
03:39 10.3 9.8 97 1006.4 3.8 W 8.3 0.0 4.8
03:40 10.3 9.8 97 1006.5 5.4 W 8.3 0.8 4.8
03:41 10.3 9.8 97 1006.6 5.4 W 8.3 0.8 4.8
03:42 10.3 9.8 97 1006.6 5.4 W 8.3 0.8 4.8
03:43 10.3 9.8 97 1006.6 8.3 W 8.3 0.8 4.8
03:44 10.4 9.9 97 1006.5 2.2 W 8.3 0.8 4.8
03:45 10.4 9.9 97 1006.5 5.4 NW 8.3 0.0 4.8
03:46 10.4 9.9 97 1006.6 4.5 NW 8.3 0.0 4.8
03:47 10.4 9.9 97 1006.6 4.5 NW 8.3 0.0 4.8
03:48 10.4 9.9 97 1006.4 3.8 SW 8.3 0.8 4.9
03:49 10.4 9.9 97 1006.4 4.5 NW 8.3 0.8 4.9
03:51 10.4 9.9 97 1006.6 4.5 W 8.3 0.8 4.9
03:52 10.4 9.9 97 1006.5 3.1 NW 8.3 0.8 4.9
03:53 10.4 9.9 97 1006.6 2.2 SW 8.3 0.0 4.9
03:54 10.4 9.9 97 1006.5 7.6 W 7.6 0.8 4.9
03:55 10.4 9.9 97 1006.5 5.4 S 7.6 0.8 4.9
03:56 10.4 9.9 97 1006.5 5.4 S 7.6 0.8 4.9
03:57 10.4 9.9 97 1006.5 9.8 W 9.8 0.8 4.9
03:58 10.4 9.9 97 1006.6 9.8 W 9.8 0.8 4.9
03:59 10.4 9.9 97 1006.7 9.8 W 9.8 0.0 4.9
04:00 10.4 9.9 97 1006.5 5.4 W 9.8 0.0 4.9
04:01 10.4 9.9 97 1006.6 3.8 NE 9.8 0.0 4.9
04:02 10.4 9.9 97 1006.7 3.8 W 9.8 0.0 4.9
04:03 10.4 9.9 97 1006.6 4.5 NW 9.8 0.0 4.9
04:05 10.4 9.9 97 1006.7 6.0 S 9.8 0.0 4.9
04:06 10.4 9.9 97 1006.7 4.5 SW 9.8 0.0 4.9
04:07 10.4 9.9 97 1006.7 4.5 SW 9.8 0.0 4.9
04:08 10.3 9.8 97 1006.8 6.0 W 9.8 0.0 5.0
04:09 10.3 9.8 97 1006.7 3.8 W 6.0 0.8 5.0
04:10 10.3 9.8 97 1006.7 6.9 NW 6.9 0.8 5.0
04:11 10.3 9.8 97 1006.7 6.9 NW 6.9 0.8 5.0
04:12 10.3 9.8 97 1006.5 6.9 NW 6.9 0.8 5.0
04:13 10.3 9.8 97 1006.7 6.9 NW 6.9 0.8 5.0
04:14 10.3 9.8 97 1006.6 6.9 NW 6.9 0.0 5.0
04:15 10.3 9.8 97 1006.7 6.9 NW 6.9 0.0 5.0
04:16 10.3 9.8 97 1006.9 6.0 SW 8.3 0.0 5.0
04:17 10.3 9.8 97 1006.7 6.0 SW 8.3 0.0 5.0
04:19 10.3 9.8 97 1006.7 7.6 SW 8.3 0.0 5.0
04:20 10.3 9.8 97 1006.7 7.6 SW 8.3 0.0 5.0
04:21 10.3 9.8 97 1006.9 10.7 N 10.7 0.8 5.0
04:22 10.3 9.8 97 1007.0 10.7 N 10.7 0.8 5.0
04:23 10.3 9.8 97 1006.6 10.7 N 10.7 0.8 5.0
04:24 10.3 9.8 97 1006.7 10.7 N 10.7 0.8 5.0
04:25 10.3 9.8 97 1006.7 12.1 W 12.1 0.8 5.0
04:26 10.3 9.8 97 1006.8 9.2 W 12.1 0.0 5.0
04:27 10.3 9.8 97 1006.5 7.6 WSW 12.1 0.0 5.0
04:28 10.3 9.8 97 1006.7 7.6 S 12.1 0.0 5.0
04:29 10.3 9.8 97 1006.6 4.5 SW 12.1 0.0 5.0
04:30 10.3 9.8 97 1006.8 4.5 SW 12.1 0.0 5.0
04:31 10.3 9.8 97 1006.7 8.3 SW 12.1 0.0 5.0
04:33 10.3 10.0 98 1006.6 5.4 W 12.1 0.0 5.0
04:34 10.3 10.0 98 1006.7 5.4 W 12.1 0.0 5.0
04:35 10.3 10.0 98 1006.8 5.4 W 9.2 0.0 5.0
04:36 10.3 10.0 98 1006.8 5.4 W 8.3 0.0 5.0
04:37 10.3 10.0 98 1006.7 4.5 SW 8.3 0.8 5.1
04:38 10.3 10.0 98 1006.8 4.5 SW 8.3 0.8 5.1
04:39 10.3 10.0 98 1006.8 4.5 SW 8.3 0.8 5.1
04:40 10.3 10.0 98 1006.8 6.9 SW 8.3 0.8 5.1
04:41 10.3 10.0 98 1006.7 6.9 SW 8.3 0.8 5.1
04:42 10.3 10.0 98 1006.7 6.9 SW 8.3 0.0 5.1
04:43 10.3 10.0 98 1006.6 6.9 SW 8.3 0.0 5.1
04:44 10.3 10.0 98 1006.7 5.4 SW 6.9 0.0 5.2
04:45 10.3 10.0 98 1006.7 6.9 SW 6.9 0.8 5.2
04:48 10.3 10.0 98 1006.6 6.9 SW 6.9 0.8 5.2
04:49 10.3 10.0 98 1006.8 4.5 SW 6.9 0.8 5.2
04:50 10.3 10.0 98 1006.8 4.5 SW 6.9 0.0 5.2
04:51 10.3 10.0 98 1006.8 6.0 W 6.9 0.0 5.2
04:52 10.3 10.0 98 1006.7 6.0 W 6.9 0.0 5.2
04:53 10.3 10.0 98 1006.7 7.6 W 7.6 0.0 5.2
04:54 10.3 10.0 98 1006.6 7.6 W 7.6 0.0 5.2
04:55 10.4 10.1 98 1006.7 6.0 NW 7.6 0.8 5.2
04:56 10.4 10.1 98 1006.8 5.4 SSW 7.6 0.8 5.2
04:57 10.4 10.1 98 1006.7 3.1 W 7.6 0.8 5.2
04:58 10.4 10.1 98 1006.8 3.1 SW 7.6 0.8 5.2
04:59 10.4 10.1 98 1006.9 3.1 SW 7.6 0.8 5.2
05:00 10.4 10.1 98 1006.9 3.8 N 7.6 0.0 5.2
05:02 10.4 10.1 98 1006.7 3.8 N 7.6 0.0 5.2
05:03 10.4 10.1 98 1006.7 3.8 N 7.6 0.0 5.2
05:04 10.4 10.1 98 1006.7 3.8 N 6.0 0.0 5.2
05:05 10.4 10.1 98 1006.8 3.8 N 5.4 0.0 5.2
05:06 10.4 10.1 98 1006.8 3.8 N 3.8 0.0 5.2
05:07 10.4 10.1 98 1006.8 3.8 N 3.8 0.0 5.2
05:08 10.5 10.2 98 1006.8 4.5 S 4.5 0.0 5.2
05:09 10.5 10.2 98 1006.9 3.1 W 4.5 0.0 5.2
05:10 10.5 10.2 98 1006.7 3.1 W 4.5 0.0 5.2
05:11 10.5 10.2 98 1006.7 3.8 NW 4.5 0.0 5.2
05:12 10.5 10.2 98 1007.1 5.4 NW 5.4 0.0 5.2
05:13 10.5 10.4 99 1006.8 3.1 NW 5.4 0.0 5.2
05:14 10.5 10.4 99 1007.0 6.0 N 6.0 0.0 5.2
05:16 10.5 10.4 99 1006.8 2.2 WSW 6.0 0.0 5.2
05:17 10.5 10.4 99 1006.6 6.0 SE 6.0 0.0 5.2
05:18 10.5 10.4 99 1007.0 6.0 SW 6.0 0.0 5.2
05:19 10.5 10.4 99 1006.9 6.0 SW 6.0 0.0 5.2
05:20 10.5 10.4 99 1006.9 2.2 W 6.0 0.0 5.2
05:21 10.5 10.4 99 1006.9 4.5 W 6.0 0.0 5.2
05:22 10.5 10.4 99 1006.9 4.5 W 6.0 0.0 5.2
05:23 10.5 10.4 99 1006.8 6.0 SW 6.0 0.0 5.2
05:24 10.5 10.4 99 1007.0 2.2 N 6.0 0.0 5.2
05:25 10.5 10.4 99 1006.8 4.5 NW 6.0 0.0 5.2
05:26 10.5 10.4 99 1006.9 4.5 NW 6.0 0.0 5.2
05:27 10.5 10.4 99 1006.9 4.5 NW 6.0 0.0 5.2
05:28 10.5 10.4 99 1006.7 2.2 NW 6.0 0.0 5.2
05:30 10.5 10.4 99 1006.8 3.1 SW 6.0 0.0 5.2
05:31 10.5 10.4 99 1006.9 3.1 SW 6.0 0.0 5.2
05:32 10.5 10.4 99 1006.8 5.4 W 6.0 0.0 5.2
05:33 10.5 10.4 99 1006.7 5.4 WSW 6.0 0.0 5.2
05:34 10.5 10.4 99 1006.8 4.5 NW 6.0 0.0 5.2
05:35 10.5 10.4 99 1006.8 4.5 NW 6.0 0.0 5.2
05:36 10.5 10.4 99 1006.8 4.5 NW 6.0 0.0 5.2
05:37 10.5 10.4 99 1007.1 4.5 NW 6.0 0.0 5.2
05:38 10.5 10.4 99 1006.9 3.8 N 6.0 0.0 5.2
05:39 10.5 10.4 99 1006.8 3.8 N 6.0 0.0 5.2
05:40 10.5 10.4 99 1007.1 5.4 SW 6.9 0.0 5.2
05:41 10.5 10.4 99 1007.0 5.4 SW 6.9 0.0 5.2
05:42 10.5 10.4 99 1006.8 3.8 NW 6.9 0.0 5.2
05:43 10.5 10.4 99 1006.8 3.1 NW 6.9 0.0 5.2
05:44 10.6 10.5 99 1006.9 4.5 SW 6.9 0.0 5.2
05:45 10.6 10.5 99 1006.7 2.2 SW 6.9 0.0 5.2
05:46 10.6 10.5 99 1007.0 5.4 W 6.9 0.0 5.2
05:47 10.6 10.5 99 1006.8 5.4 W 6.9 0.0 5.2
05:48 10.6 10.5 99 1006.9 2.2 NW 6.9 0.0 5.2
05:49 10.6 10.5 99 1006.9 3.1 W 6.9 0.0 5.2
05:50 10.6 10.5 99 1006.9 3.1 W 5.4 0.0 5.2
05:51 10.6 10.5 99 1006.9 3.1 W 5.4 0.0 5.2
05:52 10.6 10.5 99 1006.9 3.1 SW 5.4 0.0 5.2
05:53 10.6 10.5 99 1007.0 3.1 ENE 5.4 0.0 5.2
05:54 10.6 10.5 99 1007.0 3.1 ENE 5.4 0.0 5.2
05:55 10.6 10.5 99 1007.0 3.8 W 5.4 0.0 5.2
05:56 10.6 10.5 99 1006.9 3.8 W 5.4 0.0 5.2
05:57 10.6 10.5 99 1006.9 3.8 WNW 5.4 0.0 5.2
05:59 10.7 10.6 99 1007.1 2.2 N 3.8 0.8 5.3
06:00 10.7 10.6 99 1007.1 3.8 SW 3.8 0.8 5.3
06:01 10.7 10.6 99 1007.1 5.4 W 5.4 0.8 5.3
06:02 10.7 10.6 99 1007.1 6.0 W 6.0 0.8 5.3
06:03 10.7 10.6 99 1006.9 6.0 W 6.0 0.0 5.3
06:04 10.7 10.6 99 1007.1 6.0 W 6.0 0.0 5.3
06:05 10.7 10.6 99 1007.1 2.2 W 6.0 0.8 5.4
06:06 10.7 10.6 99 1007.1 2.2 NW 6.0 0.8 5.4
06:07 10.7 10.6 99 1007.3 3.1 S 6.0 0.8 5.4
06:08 10.7 10.6 99 1007.1 3.1 SW 6.0 0.8 5.4
06:09 10.8 10.7 99 1007.1 5.4 NW 6.0 2.3 5.5
06:10 10.8 10.7 99 1007.1 4.5 NW 6.0 3.0 5.6
06:11 10.8 10.7 99 1007.3 6.9 NW 6.9 4.5 5.7
06:13 10.8 10.7 99 1007.2 3.1 NW 7.6 6.0 5.9
06:14 10.8 10.7 99 1007.1 1.6 SW 7.6 4.5 6.0
06:15 10.8 10.7 99 1007.2 7.6 SW 7.6 4.5 6.0
06:16 10.8 10.7 99 1007.2 7.6 SW 7.6 3.8 6.0
06:17 10.8 10.7 99 1007.5 2.2 NW 7.6 3.0 6.0
06:18 10.8 10.7 99 1007.3 6.0 SW 7.6 2.3 6.0
06:19 10.8 10.7 99 1007.3 6.0 SW 7.6 2.3 6.0
06:20 10.8 10.7 99 1007.4 1.6 N 7.6 0.8 6.0
06:21 10.8 10.7 99 1007.4 1.6 W 7.6 0.0 6.0
06:22 10.8 10.7 99 1007.1 3.8 W 7.6 0.0 6.0
06:23 10.8 10.7 99 1007.4 3.8 NW 7.6 0.0 6.0
06:24 10.8 10.7 99 1007.4 2.2 W 7.6 0.0 6.0
06:25 10.8 10.7 99 1007.4 2.2 W 7.6 0.0 6.0
06:26 10.9 10.8 99 1007.4 3.8 SW 7.6 0.0 6.0
06:28 10.9 10.8 99 1007.4 3.8 SW 6.0 0.8 6.1
06:29 10.9 10.8 99 1007.4 5.4 W 5.4 0.8 6.1
06:30 10.9 10.8 99 1007.5 5.4 S 5.4 0.8 6.1
06:31 10.9 10.8 99 1007.6 5.4 S 5.4 0.8 6.1
06:32 10.9 10.8 99 1007.3 3.1 SW 5.4 0.8 6.1
06:33 10.9 10.8 99 1007.6 3.8 SW 5.4 0.0 6.1
06:34 10.9 10.8 99 1007.6 3.8 SW 5.4 0.0 6.1
06:35 10.9 10.8 99 1007.5 3.8 W 5.4 0.0 6.1
06:36 10.9 10.8 99 1007.5 4.5 S 5.4 0.0 6.1
06:37 10.9 10.8 99 1007.5 6.0 W 6.0 0.0 6.1
06:38 10.9 10.8 99 1007.6 6.0 SW 6.0 0.0 6.1
06:39 10.9 10.8 99 1007.6 2.2 N 6.0 0.0 6.1
06:40 10.9 10.8 99 1007.5 3.1 NW 6.0 0.0 6.1
06:42 10.9 10.8 99 1007.5 3.1 W 6.0 0.0 6.2
06:43 10.9 10.8 99 1007.8 2.2 W 6.0 0.8 6.2
06:44 10.9 10.8 99 1007.3 1.6 NW 6.0 0.8 6.2
06:45 10.9 10.8 99 1007.4 3.8 E 6.0 0.8 6.2
06:46 10.9 10.8 99 1007.7 3.8 NW 6.0 0.8 6.2
06:47 10.9 10.8 99 1007.6 2.2 NE 6.0 0.8 6.2
06:48 11.0 10.9 99 1007.6 2.2 NW 6.0 0.0 6.2
06:49 11.0 10.9 99 1007.6 2.2 W 3.8 0.0 6.2
06:50 11.0 10.9 99 1007.6 2.2 WSW 3.8 0.0 6.2
06:51 11.0 10.9 99 1007.8 3.1 SW 3.8 0.0 6.2
06:52 11.0 10.9 99 1007.7 0.7 NW 3.8 0.0 6.2
06:53 11.0 10.9 99 1007.8 1.6 NW 3.8 0.0 6.2
06:54 11.1 11.0 99 1007.7 2.2 WNW 3.8 0.0 6.2
06:55 11.1 11.0 99 1007.7 6.0 W 6.0 0.0 6.2
06:57 11.2 11.1 99 1007.7 4.5 NW 6.0 0.0 6.2
06:58 11.2 11.1 99 1007.7 2.2 NW 6.0 0.0 6.2
06:59 11.2 11.1 99 1007.7 2.2 NW 6.0 0.0 6.2
07:00 11.2 11.1 99 1007.7 4.5 W 6.0 0.0 6.2
07:01 11.2 11.1 99 1007.9 4.5 W 6.0 0.0 6.2
07:02 11.2 11.1 99 1007.9 4.5 W 6.0 0.0 6.2
07:03 11.2 11.1 99 1007.8 4.5 W 6.0 0.0 6.2
07:04 11.2 11.1 99 1007.9 4.5 W 6.0 0.0 6.2
07:05 11.2 11.1 99 1008.0 4.5 W 6.0 0.0 6.2
07:06 11.3 11.2 99 1007.9 3.8 NW 5.4 0.0 6.2
07:07 11.3 11.2 99 1007.9 5.4 NW 5.4 0.0 6.2
07:08 11.3 11.2 99 1007.9 3.8 NW 6.9 0.0 6.2
07:09 11.3 11.2 99 1007.8 4.5 NW 6.9 0.8 6.2
07:11 11.4 11.3 99 1008.0 2.2 WNW 6.9 0.8 6.2
07:12 11.4 11.3 99 1007.9 6.0 NW 6.9 0.8 6.2
07:13 11.3 11.2 99 1007.8 6.0 SW 6.9 0.8 6.2
07:14 11.3 11.2 99 1007.9 4.5 W 6.9 0.0 6.2
07:15 11.3 11.2 99 1007.9 5.4 NE 6.9 0.0 6.2
07:16 11.3 11.2 99 1008.1 5.4 SW 6.9 0.0 6.2
07:17 11.3 11.2 99 1008.0 4.5 N 6.9 0.0 6.2
07:18 11.3 11.2 99 1008.1 3.1 NE 6.0 0.0 6.2
07:19 11.3 11.2 99 1008.2 2.2 S 6.0 0.0 6.2
07:20 11.3 11.2 99 1008.1 5.4 W 6.0 0.0 6.2
07:21 11.3 11.2 99 1007.9 2.2 W 6.0 0.0 6.2
07:22 11.3 11.2 99 1008.2 3.8 W 6.0 0.0 6.2
07:23 11.3 11.2 99 1008.0 3.8 W 6.0 0.0 6.2
07:25 11.3 11.2 99 1008.3 3.1 W 5.4 0.0 6.2
07:26 11.3 11.2 99 1008.3 2.2 N 5.4 0.0 6.2
07:27 11.3 11.2 99 1008.2 8.3 W 8.3 0.0 6.2
07:28 11.3 11.2 99 1008.2 6.0 W 8.3 0.0 6.2
07:29 11.3 11.2 99 1008.2 3.8 NW 8.3 0.0 6.2
07:30 11.3 11.2 99 1008.1 3.8 W 8.3 0.0 6.2
07:31 11.3 11.2 99 1008.1 3.8 W 8.3 0.0 6.2
07:32 11.3 11.2 99 1008.2 2.2 N 8.3 0.0 6.2
07:33 11.3 11.2 99 1008.2 3.8 NW 8.3 0.0 6.2
07:34 11.4 11.3 99 1008.2 4.5 NW 8.3 0.0 6.2
07:35 11.4 11.3 99 1008.3 4.5 W 8.3 0.0 6.2
07:36 11.4 11.3 99 1008.2 5.4 N 8.3 0.0 6.2
07:37 11.4 11.3 99 1008.4 5.4 SW 8.3 0.0 6.2
07:38 11.4 11.3 99 1008.2 4.5 SW 6.0 0.0 6.2
07:39 11.5 11.4 99 1008.4 3.8 SW 5.4 0.0 6.2
07:40 11.5 11.4 99 1008.5 7.6 NW 7.6 0.0 6.2
07:41 11.5 11.4 99 1008.3 6.0 NW 7.6 0.0 6.2
07:42 11.5 11.4 99 1008.6 2.2 E 7.6 0.0 6.2
07:43 11.6 11.5 99 1008.4 2.2 W 7.6 0.0 6.2
07:44 11.6 11.5 99 1008.5 6.0 SW 7.6 0.0 6.2
07:45 11.6 11.5 99 1008.3 5.4 W 7.6 0.0 6.2
07:46 11.6 11.5 99 1008.4 6.9 SW 7.6 0.0 6.2
07:47 11.6 11.5 99 1008.3 5.4 W 7.6 0.0 6.2
07:48 11.6 11.5 99 1008.6 3.8 W 7.6 0.0 6.2
07:49 11.6 11.5 99 1008.4 3.8 NW 7.6 0.0 6.2
07:50 11.7 11.6 99 1008.6 3.8 NW 7.6 0.0 6.2
07:51 11.7 11.6 99 1008.5 3.8 NW 7.6 0.0 6.2
07:52 11.7 11.6 99 1008.3 5.4 E 6.9 0.0 6.2
07:54 11.7 11.6 99 1008.5 5.4 W 6.9 0.0 6.2
07:55 11.7 11.6 99 1008.5 5.4 W 6.9 0.0 6.2
07:56 11.7 11.6 99 1008.7 4.5 NW 5.4 0.0 6.2
07:57 11.7 11.6 99 1008.6 5.4 W 5.4 0.0 6.2
07:58 11.7 11.6 99 1008.7 3.8 NW 5.4 0.0 6.2
07:59 11.7 11.6 99 1008.7 3.8 NW 5.4 0.0 6.2
08:00 11.7 11.6 99 1008.7 3.8 W 5.4 0.0 6.2
08:01 11.7 11.6 99 1008.5 3.8 W 5.4 0.0 6.2
08:02 11.7 11.6 99 1008.7 3.8 W 5.4 0.0 6.2
08:03 11.7 11.6 99 1008.7 3.8 W 5.4 0.0 6.2
08:04 11.8 11.7 99 1008.8 5.4 W 5.4 0.0 6.2
08:05 11.8 11.7 99 1008.7 5.4 NW 5.4 0.0 6.2
08:06 11.8 11.7 99 1008.7 3.1 N 5.4 0.0 6.2
08:07 11.9 11.8 99 1008.7 3.1 SW 5.4 0.0 6.2
08:09 12.0 11.9 99 1008.7 6.0 NW 6.0 0.0 6.2
08:10 12.0 11.9 99 1008.7 6.0 NE 6.0 0.0 6.2
08:11 12.0 11.9 99 1008.9 6.9 SW 6.9 0.0 6.2
08:12 12.0 11.9 99 1008.7 6.9 NW 6.9 0.0 6.2
08:13 12.0 11.9 99 1008.7 4.5 W 6.9 0.0 6.2
08:14 12.0 11.9 99 1008.7 4.5 W 6.9 0.0 6.2
08:15 12.0 11.9 99 1008.9 4.5 N 6.9 0.0 6.2
08:16 12.0 11.9 99 1008.8 6.0 SE 6.9 0.0 6.2
08:17 12.0 11.9 99 1008.9 3.1 N 6.9 0.0 6.2
08:18 12.0 11.9 99 1009.0 4.5 W 6.9 0.0 6.2
08:19 12.0 11.9 99 1008.9 4.5 N 6.9 0.0 6.2
08:20 12.0 11.9 99 1008.9 4.5 ENE 6.9 0.0 6.2
08:21 12.0 11.9 99 1009.0 5.4 NW 6.9 0.0 6.2
08:23 12.0 11.9 99 1009.0 6.0 NW 6.0 0.0 6.2
08:24 12.0 11.9 99 1008.8 6.9 NW 6.9 0.0 6.2
08:25 12.1 12.0 99 1009.2 6.0 W 6.9 0.0 6.2
08:26 12.1 12.0 99 1009.0 6.9 N 6.9 0.0 6.2
08:27 12.1 12.0 99 1009.1 6.0 W 6.9 0.0 6.2
08:28 12.1 12.0 99 1009.1 6.9 NW 6.9 0.0 6.2
08:29 12.1 12.0 99 1009.1 6.9 SW 6.9 0.0 6.2
08:30 12.2 12.1 99 1009.1 6.0 NW 6.9 0.0 6.2
08:31 12.2 12.1 99 1009.1 6.9 SW 6.9 0.0 6.2
08:32 12.2 12.1 99 1009.3 5.4 N 6.9 0.0 6.2
08:33 12.2 12.1 99 1009.1 4.5 NW 6.9 0.0 6.2
08:34 12.3 12.2 99 1008.9 11.4 SW 11.4 0.0 6.2
08:35 12.3 12.2 99 1009.2 11.4 NW 11.4 0.0 6.2
08:36 12.3 12.2 99 1009.2 11.4 W 11.4 0.0 6.2
08:38 12.3 12.2 99 1009.3 7.6 W 11.4 0.0 6.2
08:39 12.3 12.2 99 1009.2 9.8 W 11.4 0.0 6.2
08:40 12.3 12.2 99 1009.3 8.3 N 11.4 0.0 6.2
08:41 12.3 12.2 99 1009.1 9.8 N 11.4 0.0 6.2
08:42 12.3 12.2 99 1009.4 10.7 NE 11.4 0.0 6.2
08:43 12.3 12.2 99 1009.3 10.7 WNW 11.4 0.0 6.2
08:44 12.3 12.2 99 1009.3 8.3 W 11.4 0.0 6.2
08:45 12.3 12.2 99 1009.3 9.8 N 11.4 0.0 6.2
08:46 12.3 12.2 99 1009.3 9.8 N 11.4 0.0 6.2
08:47 12.2 12.1 99 1009.4 6.0 W 10.7 0.0 6.2
08:48 12.2 12.1 99 1009.4 3.8 NW 10.7 0.0 6.2
08:49 12.2 12.1 99 1009.4 6.9 W 10.7 0.0 6.2
08:50 12.2 12.1 99 1009.4 5.4 W 10.7 0.0 6.2
08:51 12.2 12.1 99 1009.4 2.2 S 10.7 0.0 6.2
08:52 12.2 12.1 99 1009.5 5.4 N 10.7 0.0 6.2
08:54 12.2 12.1 99 1009.4 5.4 SW 9.8 0.0 6.2
08:55 12.2 12.1 99 1009.6 4.5 N 9.8 0.0 6.2
08:56 12.2 12.1 99 1009.5 4.5 N 6.9 0.0 6.2
08:57 12.2 12.1 99 1009.4 9.2 W 9.2 0.0 6.2
08:58 12.2 12.1 99 1009.4 9.2 W 9.2 0.0 6.2
08:59 12.2 12.1 99 1009.3 6.9 W 9.2 0.0 6.2
09:00 12.2 12.1 99 1009.2 6.9 W 9.2 0.0 6.2
09:01 12.2 12.1 99 1009.4 6.9 W 9.2 0.0 6.2
09:02 12.2 12.1 99 1009.2 6.9 W 9.2 0.0 6.2
09:03 12.2 12.1 99 1009.4 6.9 W 9.2 0.0 6.2
09:04 12.2 12.1 99 1009.3 6.9 W 9.2 0.0 6.2
09:05 12.2 12.1 99 1009.4 6.9 W 9.2 0.0 6.2
09:06 12.2 12.1 99 1009.4 5.4 NW 9.2 0.0 6.2
09:07 12.2 12.1 99 1009.3 3.1 SW 9.2 0.0 6.2
09:09 12.2 12.1 99 1009.3 6.9 W 6.9 0.0 6.2
09:10 12.3 12.2 99 1009.5 4.5 W 6.9 0.0 6.2
09:11 12.3 12.2 99 1009.4 3.1 NW 6.9 0.0 6.2
09:12 12.3 12.2 99 1009.5 3.8 W 6.9 0.0 6.2
09:13 12.3 12.2 99 1009.2 5.4 NW 6.9 0.0 6.2
09:14 12.3 12.2 99 1009.4 6.0 W 6.9 0.0 6.2
09:15 12.3 12.2 99 1009.4 6.0 W 6.9 0.0 6.2
09:16 12.4 12.3 99 1009.4 7.6 NW 7.6 0.0 6.2
09:17 12.4 12.3 99 1009.3 4.5 W 7.6 0.0 6.2
09:18 12.4 12.3 99 1009.3 6.0 NW 7.6 0.0 6.2
09:19 12.4 12.3 99 1009.3 6.0 N 7.6 0.0 6.2
09:20 12.5 12.0 97 1009.6 7.6 W 7.6 0.0 6.2
09:21 12.6 12.1 97 1009.5 6.9 E 7.6 0.0 6.2
09:22 12.6 12.1 97 1009.4 5.4 E 7.6 0.0 6.2
09:23 12.7 12.2 97 1009.4 6.9 W 7.6 0.0 6.2
09:24 12.8 12.3 97 1009.5 6.0 W 7.6 0.0 6.2
09:25 12.9 12.4 97 1009.4 7.6 W 7.6 0.0 6.2
09:26 12.9 12.4 97 1009.5 9.2 NW 9.2 0.0 6.2
09:27 12.9 12.4 97 1009.6 10.7 W 10.7 0.0 6.2
09:28 12.9 12.4 97 1009.8 9.2 W 10.7 0.0 6.2
09:29 12.8 12.2 96 1009.7 6.0 WNW 10.7 0.0 6.2
09:30 12.8 12.2 96 1009.8 5.4 NW 10.7 0.0 6.2
09:31 12.8 12.2 96 1009.8 5.4 NW 10.7 0.0 6.2
09:32 12.8 12.2 96 1009.7 6.0 SW 10.7 0.0 6.2
09:33 12.8 12.2 96 1009.8 5.4 W 10.7 0.0 6.2
09:34 12.8 12.2 96 1009.5 10.7 NW 10.7 0.0 6.2
09:35 12.8 12.2 96 1009.7 7.6 NW 10.7 0.0 6.2
09:36 12.8 12.0 95 1009.7 6.9 NW 10.7 0.0 6.2
09:37 12.8 12.0 95 1009.6 9.2 W 10.7 0.0 6.2
09:39 12.8 11.9 94 1009.7 10.7 NW 11.4 0.0 6.2
09:40 12.8 11.7 93 1009.7 6.0 NW 11.4 0.0 6.2
09:41 12.8 11.5 92 1009.6 9.8 SW 11.4 0.0 6.2
09:42 12.8 11.5 92 1009.5 7.6 E 11.4 0.0 6.2
09:43 12.8 11.4 91 1009.7 7.6 NW 11.4 0.0 6.2
09:44 12.8 11.4 91 1009.6 6.9 NW 11.4 0.0 6.2
09:45 12.9 11.3 90 1009.7 6.0 NW 11.4 0.0 6.2
09:46 12.9 11.3 90 1009.9 10.7 NW 11.4 0.0 6.2
09:47 12.9 11.3 90 1009.8 10.7 E 11.4 0.0 6.2
09:48 12.9 11.1 89 1009.6 7.6 NE 11.4 0.0 6.2
09:49 12.9 11.0 88 1009.7 12.1 W 12.1 0.0 6.2
09:50 12.9 11.0 88 1009.9 6.9 W 12.1 0.0 6.2
09:51 12.9 10.8 87 1009.8 9.2 NW 12.1 0.0 6.2
09:53 12.9 10.6 86 1010.0 8.3 NW 12.1 0.0 6.2
09:54 12.9 10.6 86 1009.8 9.8 SW 12.1 0.0 6.2
09:55 12.9 10.6 86 1009.8 5.4 NW 12.1 0.0 6.2
09:56 13.0 10.7 86 1010.0 3.8 WNW 12.1 0.0 6.2
09:57 13.0 10.7 86 1010.0 9.2 W 12.1 0.8 6.3
09:58 13.0 10.7 86 1009.9 9.2 SW 12.1 0.8 6.3
09:59 13.0 10.7 86 1009.9 9.2 SW 12.1 0.8 6.3
10:00 13.0 10.7 86 1010.0 5.4 W 9.8 0.8 6.3
10:01 13.0 10.7 86 1009.9 5.4 W 9.8 0.8 6.3
10:02 13.0 10.7 86 1010.0 5.4 W 9.8 0.0 6.3
10:03 13.0 10.7 86 1009.9 5.4 W 9.8 0.0 6.3
10:04 13.0 10.7 86 1009.9 5.4 W 9.8 0.0 6.3
10:05 13.0 10.7 86 1010.1 5.4 W 9.2 0.0 6.3
10:06 13.0 10.5 85 1009.9 9.2 NW 9.2 0.0 6.3
10:08 13.0 10.4 84 1009.9 5.4 NW 9.2 0.0 6.3
10:09 13.0 10.5 85 1010.0 4.5 W 9.2 0.0 6.3
10:10 13.0 10.5 85 1010.0 4.5 N 9.2 0.0 6.3
10:11 13.1 10.6 85 1009.9 4.5 NW 9.2 0.0 6.3
10:12 13.1 10.6 85 1010.1 3.1 SW 9.2 0.0 6.3
10:13 13.1 10.6 85 1009.9 6.9 WNW 9.2 0.0 6.3
10:14 13.1 10.6 85 1009.9 6.9 WNW 9.2 0.0 6.3
10:15 13.1 10.6 85 1010.1 3.8 S 9.2 0.0 6.3
10:16 13.1 10.6 85 1010.1 4.5 W 9.2 0.0 6.3
10:17 13.1 10.5 84 1010.2 4.5 S 6.9 0.0 6.3
10:18 13.1 10.5 84 1010.2 6.9 W 6.9 0.0 6.3
10:19 13.1 10.5 84 1010.4 6.9 SW 6.9 0.0 6.3
10:20 13.1 10.5 84 1010.1 6.9 NW 11.4 0.0 6.3
10:22 13.1 10.5 84 1010.2 6.0 WNW 11.4 0.0 6.3
10:23 13.1 10.5 84 1010.3 6.0 S 11.4 0.0 6.3
10:24 13.1 10.5 84 1010.3 7.6 W 11.4 0.0 6.3
10:25 13.1 10.5 84 1010.1 9.2 WNW 11.4 0.0 6.3
10:26 13.1 10.5 84 1010.2 6.0 NW 11.4 0.0 6.3
10:27 13.1 10.5 84 1010.1 7.6 N 11.4 0.0 6.3
10:28 13.1 10.5 84 1010.2 7.6 NW 11.4 0.0 6.3
10:29 13.1 10.5 84 1010.2 6.9 N 11.4 0.0 6.3
10:30 13.1 10.5 84 1010.4 6.9 W 9.2 0.0 6.3
10:31 13.1 10.5 84 1010.2 4.5 W 9.2 0.0 6.3
10:32 13.1 10.5 84 1010.2 4.5 N 9.2 0.0 6.3
10:33 13.2 10.6 84 1010.3 9.2 W 9.2 0.0 6.3
10:34 13.2 10.6 84 1010.4 9.2 W 9.2 0.0 6.3
10:35 13.2 10.6 84 1010.3 7.6 NW 9.2 0.0 6.3
10:37 13.1 10.3 83 1010.4 9.2 NW 9.2 0.0 6.3
10:38 13.1 10.3 83 1010.3 8.3 NW 9.2 0.0 6.3
10:39 13.1 10.3 83 1010.5 8.3 NW 9.2 0.0 6.3
10:40 13.1 10.3 83 1010.4 6.0 W 9.2 0.0 6.3
10:41 13.0 10.2 83 1010.3 9.2 NW 9.2 0.0 6.3
10:42 13.0 10.2 83 1010.3 6.0 NW 9.2 0.0 6.3
10:43 13.0 10.2 83 1010.3 6.0 NW 9.2 0.0 6.3
10:44 13.0 10.2 83 1010.5 7.6 W 9.2 0.0 6.3
10:45 13.0 10.2 83 1010.2 7.6 NE 9.2 0.0 6.3
10:46 13.0 10.2 83 1010.5 5.4 SW 9.2 0.0 6.3
10:47 13.0 10.2 83 1010.2 7.6 NW 9.2 0.0 6.3
10:48 13.1 10.3 83 1010.3 5.4 W 9.2 0.0 6.3
10:49 13.1 10.3 83 1010.5 6.0 SE 9.2 0.0 6.3
10:51 13.1 10.1 82 1010.5 6.0 NW 9.2 0.0 6.3
10:52 13.2 10.2 82 1010.6 3.8 NW 7.6 0.0 6.3
10:53 13.3 10.5 83 1010.5 6.9 SW 7.6 0.0 6.3
10:54 13.4 10.6 83 1010.5 7.6 NW 7.6 0.0 6.3
10:55 13.6 10.8 83 1010.3 8.3 SW 8.3 0.0 6.3
10:56 13.7 11.1 84 1010.5 7.6 NW 8.3 0.0 6.3
10:57 13.7 11.1 84 1010.6 7.6 NW 8.3 0.0 6.3
10:58 13.8 11.1 84 1010.4 6.9 SW 8.3 0.0 6.3
10:59 14.0 11.3 84 1010.6 7.6 W 8.3 0.0 6.3
11:00 14.1 11.3 83 1010.6 9.2 N 9.2 0.0 6.3
11:01 14.1 11.3 83 1010.6 9.2 N 9.2 0.0 6.3
11:02 14.1 11.3 83 1010.4 9.2 N 9.2 0.0 6.3
11:03 14.2 11.2 82 1010.6 9.8 W 9.8 0.0 6.3
11:05 14.0 10.8 81 1010.7 9.2 W 9.8 0.0 6.3
11:06 14.0 10.6 80 1010.6 6.0 W 9.8 0.0 6.3
11:07 13.9 10.5 80 1010.8 6.0 E 9.8 0.0 6.3
11:08 13.9 10.5 80 1010.7 6.9 W 9.8 0.0 6.3
11:09 13.8 10.4 80 1010.9 7.6 W 9.8 0.0 6.3
11:10 13.8 10.4 80 1010.6 5.4 W 9.8 0.0 6.3
11:11 13.8 10.4 80 1010.6 5.4 W 9.8 0.0 6.3
11:12 13.7 10.3 80 1010.6 6.0 SW 9.8 0.0 6.3
11:13 13.7 10.3 80 1010.7 9.2 W 9.2 0.0 6.3
11:14 13.6 10.2 80 1010.7 9.2 W 9.2 0.0 6.3
11:15 13.6 10.2 80 1010.7 8.3 W 9.2 0.0 6.3
11:16 13.6 10.0 79 1010.9 9.2 W 9.2 0.0 6.3
11:17 13.5 9.9 79 1010.9 6.9 SW 9.2 0.0 6.3
11:18 13.5 10.1 80 1010.9 3.8 W 9.2 0.0 6.3
11:19 13.5 10.1 80 1010.9 8.3 SW 9.2 0.0 6.3
11:20 13.5 10.1 80 1010.9 11.4 W 12.1 0.0 6.3
11:21 13.5 9.9 79 1010.8 9.8 SW 12.1 0.0 6.3
11:22 13.4 9.8 79 1010.7 9.8 NW 12.1 0.0 6.3
11:24 13.4 9.8 79 1011.2 7.6 NW 12.1 0.0 6.3
11:25 13.4 10.0 80 1010.7 12.1 SE 12.1 0.0 6.3
11:26 13.5 10.1 80 1011.1 4.5 NW 12.1 0.0 6.3
11:27 13.5 10.1 80 1010.9 11.4 NW 12.1 0.0 6.3
11:28 13.5 10.1 80 1011.1 8.3 NW 12.1 0.0 6.3
11:29 13.5 9.9 79 1011.0 8.3 NW 12.1 0.0 6.3
11:30 13.5 9.9 79 1011.0 8.3 NW 12.1 0.0 6.3
11:31 13.4 9.8 79 1011.1 8.3 W 12.1 0.0 6.3
11:32 13.4 9.8 79 1011.0 7.6 W 12.1 0.0 6.3
11:33 13.4 9.8 79 1011.0 6.9 W 12.1 0.0 6.3
11:34 13.4 10.0 80 1010.9 6.9 NW 12.1 0.0 6.3
11:35 13.5 10.1 80 1011.0 7.6 NW 12.1 0.0 6.3
11:36 13.6 10.2 80 1010.9 5.4 W 12.1 0.0 6.3
11:38 13.8 10.4 80 1010.9 9.2 W 9.8 0.0 6.3
11:39 13.8 10.4 80 1011.1 6.9 NW 9.2 0.0 6.3
11:40 13.9 10.5 80 1011.0 6.9 WNW 9.2 0.0 6.3
11:41 13.9 10.5 80 1011.1 9.2 SW 9.2 0.0 6.3
11:42 13.9 10.5 80 1011.2 8.3 S 9.2 0.0 6.3
11:43 14.0 10.6 80 1011.1 4.5 W 9.2 0.0 6.3
11:44 14.0 10.4 79 1011.2 7.6 SW 9.2 0.0 6.3
11:45 14.0 10.4 79 1011.2 8.3 W 9.2 0.0 6.3
11:46 13.9 10.1 78 1011.2 8.3 W 9.2 0.0 6.3
11:47 13.9 10.1 78 1011.2 8.3 NW 9.2 0.0 6.3
11:48 13.9 9.9 77 1011.1 7.6 N 9.2 0.0 6.3
11:49 13.8 9.8 77 1011.2 10.7 W 10.7 0.0 6.3
11:50 13.8 9.8 77 1011.2 10.7 W 10.7 0.0 6.3
11:51 13.8 9.8 77 1011.2 6.9 SW 10.7 0.0 6.3
11:53 13.7 9.7 77 1011.2 6.9 W 10.7 0.0 6.3
11:54 13.7 9.7 77 1011.4 6.0 SW 10.7 0.0 6.3
11:55 13.6 9.6 77 1011.4 9.8 NW 10.7 0.0 6.3
11:56 13.6 9.6 77 1011.4 7.6 NW 10.7 0.0 6.3
11:57 13.5 9.6 77 1011.2 8.3 S 10.7 0.0 6.3
11:58 13.5 9.6 77 1011.3 8.3 SW 10.7 0.0 6.3
11:59 13.5 9.6 77 1011.3 8.3 SW 10.7 0.0 6.3
12:00 13.5 9.6 77 1011.3 7.6 NW 10.7 0.0 6.3
12:01 13.5 9.6 77 1011.3 7.6 NW 9.8 0.0 6.3
12:02 13.5 9.6 77 1011.3 7.6 NW 9.8 0.0 6.3
12:03 13.5 9.6 77 1011.1 7.6 NW 9.8 0.0 6.3
12:04 13.5 9.6 77 1011.3 7.6 NW 9.8 0.0 6.3
12:05 13.5 9.6 77 1011.3 7.6 NW 9.8 0.0 6.3
12:06 13.4 9.8 79 1011.3 6.0 NE 9.2 0.0 6.3
12:08 13.5 10.1 80 1011.3 6.0 NW 9.8 0.0 6.3
12:09 13.5 10.1 80 1011.2 7.6 S 9.8 0.0 6.3
12:10 13.5 9.9 79 1011.3 6.9 S 9.8 0.0 6.3
12:11 13.5 9.9 79 1011.4 6.9 SW 9.8 0.0 6.3
12:12 13.5 9.9 79 1011.4 6.0 NW 9.8 0.0 6.3
12:13 13.5 10.1 80 1011.3 3.8 NW 9.8 0.0 6.3
12:14 13.5 10.1 80 1011.3 3.8 NW 9.8 0.0 6.3
12:15 13.5 10.1 80 1011.3 7.6 S 9.8 0.0 6.3
12:16 13.5 10.1 80 1011.4 4.5 SW 9.8 0.0 6.3
12:17 13.5 10.1 80 1011.3 6.9 W 9.8 0.0 6.3
12:18 13.6 10.2 80 1011.3 7.6 SW 8.3 0.0 6.3
12:19 13.6 10.2 80 1011.5 7.6 W 8.3 0.0 6.3
12:20 13.6 10.2 80 1011.2 5.4 NE 7.6 0.0 6.3
12:21 13.6 10.2 80 1011.4 9.2 NW 9.2 0.0 6.3
12:23 13.7 10.3 80 1011.3 10.7 NW 10.7 0.0 6.3
12:24 13.7 10.3 80 1011.3 8.3 N 10.7 0.0 6.3
12:25 13.8 10.4 80 1011.3 12.1 NW 12.1 0.0 6.3
12:26 13.8 10.2 79 1011.2 9.2 SE 12.1 0.0 6.3
12:27 13.8 10.2 79 1011.4 6.9 W 12.1 0.0 6.3
12:28 13.9 10.3 79 1011.4 6.9 N 12.1 0.0 6.3
12:29 14.0 10.4 79 1011.3 8.3 W 12.1 0.0 6.3
12:30 14.0 10.2 78 1011.6 8.3 SW 12.1 0.0 6.3
12:31 14.1 10.5 79 1011.4 6.0 NW 12.1 0.0 6.3
12:32 14.2 10.6 79 1011.5 6.0 SW 12.1 0.0 6.3
12:33 14.3 10.5 78 1011.3 7.6 NW 12.1 0.0 6.3
12:34 14.4 10.6 78 1011.3 10.7 NW 12.1 0.0 6.3
12:35 14.5 10.5 77 1011.2 9.2 W 12.1 0.0 6.3
12:37 14.9 10.9 77 1011.4 9.2 SW 10.7 0.0 6.3
12:38 14.9 10.7 76 1011.3 11.4 SW 11.4 0.0 6.3
12:39 14.9 10.5 75 1011.6 7.6 WNW 11.4 0.0 6.3
12:40 14.9 10.3 74 1011.3 10.7 N 11.4 0.0 6.3
12:41 14.7 9.9 73 1011.4 6.9 NE 11.4 0.0 6.3
12:42 14.6 9.8 73 1011.3 6.9 W 11.4 0.0 6.3
12:43 14.6 9.8 73 1011.3 6.9 W 11.4 0.0 6.3
12:44 14.4 9.6 73 1011.4 9.2 W 12.1 0.0 6.3
12:45 14.3 9.5 73 1011.3 11.4 NW 12.1 0.0 6.3
12:46 14.3 9.5 73 1011.4 11.4 W 12.1 0.0 6.3
12:47 14.2 9.4 73 1011.7 2.2 N 12.1 0.0 6.3
12:48 14.2 9.6 74 1011.3 10.7 N 12.1 0.0 6.3
12:49 14.1 9.5 74 1011.5 7.6 SW 12.1 0.0 6.3
12:51 14.0 9.6 75 1011.4 6.0 NW 12.1 0.0 6.3
12:52 14.0 9.6 75 1011.5 8.3 W 12.1 0.0 6.3
12:53 13.9 9.7 76 1011.6 12.1 NW 12.1 0.0 6.3
12:54 13.9 9.7 76 1011.6 6.9 NW 12.1 0.0 6.3
12:55 13.9 9.7 76 1011.6 7.6 SW 12.1 0.0 6.3
12:56 13.9 9.7 76 1011.7 6.9 NW 12.1 0.0 6.3
12:57 13.8 9.6 76 1011.3 5.4 W 12.1 0.0 6.3
12:58 13.8 9.6 76 1011.5 6.9 SW 12.1 0.0 6.3
12:59 13.8 9.6 76 1011.6 9.8 WSW 12.1 0.0 6.3
13:00 13.7 9.6 76 1011.7 5.4 NW 12.1 0.0 6.3
13:01 13.7 9.6 76 1011.4 5.4 NW 12.1 0.0 6.3
13:02 13.7 9.6 76 1011.4 5.4 NW 12.1 0.0 6.3
13:03 13.6 9.5 76 1011.5 9.2 SW 12.1 0.0 6.3
13:04 13.6 9.6 77 1011.4 4.5 SW 12.1 0.0 6.3
13:06 13.6 9.8 78 1011.4 6.9 W 9.8 0.0 6.3
13:07 13.7 9.9 78 1011.4 10.7 NW 10.7 0.0 6.3
13:08 13.7 9.9 78 1011.6 10.7 W 10.7 0.0 6.3
13:09 13.7 10.1 79 1011.5 6.9 NW 10.7 0.0 6.3
13:10 13.8 10.0 78 1011.7 13.0 NW 13.0 0.0 6.3
13:11 13.7 9.9 78 1011.5 4.5 SW 13.0 0.0 6.3
13:12 13.7 9.9 78 1011.5 9.8 N 13.0 0.0 6.3
13:13 13.8 10.0 78 1011.5 6.9 WNW 13.0 0.0 6.3
13:14 13.8 10.0 78 1011.5 9.2 N 13.0 0.0 6.3
13:15 13.7 9.9 78 1011.6 7.6 S 13.0 0.0 6.3
13:16 13.7 9.9 78 1011.6 3.1 W 13.0 0.0 6.3
13:17 13.7 9.9 78 1011.5 12.1 NW 13.0 0.0 6.3
13:18 13.7 9.9 78 1011.8 10.7 SW 13.0 0.0 6.3
13:19 13.7 9.9 78 1011.8 10.7 SW 13.0 0.0 6.3
13:20 13.6 9.8 78 1011.7 8.3 SW 13.0 0.0 6.3
13:21 13.6 9.8 78 1011.8 6.9 N 12.1 0.0 6.3
13:22 13.5 9.7 78 1012.0 8.3 NW 12.1 0.0 6.3
13:23 13.5 9.7 78 1011.8 8.3 NW 12.1 0.0 6.3
13:24 13.4 9.8 79 1011.7 9.8 E 12.1 0.0 6.3
13:25 13.4 9.8 79 1011.6 5.4 WSW 12.1 0.0 6.3
13:26 13.3 9.7 79 1011.8 6.9 N 12.1 0.0 6.3
13:28 13.2 9.8 80 1011.8 6.9 W 10.7 0.0 6.3
13:29 13.1 9.7 80 1011.9 5.4 SW 10.7 0.0 6.3
13:30 13.0 9.6 80 1011.9 4.5 SW 9.8 0.0 6.3
13:31 13.0 9.6 80 1011.9 6.9 E 9.8 0.0 6.3
13:32 13.0 9.6 80 1011.9 6.9 NW 9.8 0.0 6.3
13:33 13.0 9.6 80 1012.1 4.5 N 9.8 0.0 6.3
13:34 13.0 9.6 80 1012.1 4.5 N 9.8 0.0 6.3
13:35 12.9 9.5 80 1011.9 6.0 W 6.9 0.0 6.3
13:36 12.9 9.7 81 1011.9 6.0 W 6.9 0.0 6.3
13:37 12.9 9.7 81 1012.0 6.0 W 6.9 0.0 6.3
13:38 12.9 9.7 81 1012.0 3.1 W 6.9 0.0 6.3
13:39 12.9 9.7 81 1012.0 7.6 N 7.6 0.0 6.3
13:40 12.9 9.7 81 1012.0 7.6 NW 7.6 0.0 6.3
13:41 12.9 9.7 81 1012.0 7.6 SW 7.6 0.0 6.3
13:42 12.8 9.6 81 1012.1 6.0 N 7.6 0.0 6.3
13:44 12.8 9.6 81 1012.0 7.6 NW 7.6 0.0 6.3
13:45 12.8 9.6 81 1012.1 7.6 W 7.6 0.0 6.3
13:46 12.8 9.6 81 1012.0 6.9 W 7.6 0.0 6.3
13:47 12.8 9.6 81 1011.9 6.9 SW 7.6 0.0 6.3
13:48 12.8 9.6 81 1012.0 6.0 NW 7.6 0.0 6.3
13:49 12.8 9.8 82 1011.8 3.8 SW 7.6 0.0 6.3
13:50 12.8 9.8 82 1012.0 6.9 SSW 7.6 0.0 6.3
13:51 12.8 9.8 82 1012.0 6.9 SSW 7.6 0.0 6.3
13:52 12.8 9.8 82 1011.8 6.9 NW 7.6 0.0 6.3
13:53 12.8 9.8 82 1012.0 6.9 NW 7.6 0.0 6.3
13:54 12.8 9.8 82 1012.0 7.6 W 7.6 0.0 6.3
13:55 12.8 9.8 82 1011.9 7.6 NW 7.6 0.0 6.3
13:56 12.8 9.8 82 1012.1 3.8 NW 7.6 0.0 6.3
13:57 12.8 9.8 82 1012.0 6.0 N 7.6 0.0 6.3
13:58 12.9 9.9 82 1011.8 6.0 WSW 7.6 0.0 6.3
14:00 12.9 9.9 82 1011.8 2.2 S 7.6 0.0 6.3
14:01 12.9 9.9 82 1012.2 2.2 S 7.6 0.0 6.3
14:02 12.9 9.9 82 1012.2 6.9 NW 7.6 0.0 6.3
14:03 13.0 10.0 82 1012.0 4.5 NW 7.6 0.0 6.3
14:04 13.0 10.0 82 1012.2 7.6 NW 7.6 0.0 6.3
14:05 13.0 10.0 82 1012.3 5.4 S 7.6 0.0 6.3
14:06 13.0 10.0 82 1012.2 5.4 NW 7.6 0.0 6.3
14:07 13.0 10.0 82 1012.3 3.8 NW 7.6 0.0 6.3
14:08 13.0 10.0 82 1012.1 3.8 NW 7.6 0.0 6.3
14:09 13.0 10.0 82 1012.4 5.4 SW 7.6 0.0 6.3
14:10 13.0 10.0 82 1011.9 6.9 NW 7.6 0.0 6.3
14:11 13.0 10.0 82 1012.0 7.6 NW 7.6 0.0 6.3
14:12 13.0 10.0 82 1012.1 5.4 WNW 7.6 0.0 6.3
14:13 13.0 10.0 82 1012.3 6.0 S 7.6 0.0 6.3
14:14 13.0 10.0 82 1012.1 6.9 SW 7.6 0.0 6.3
14:15 13.0 10.0 82 1012.2 6.9 W 7.6 0.0 6.3
14:16 13.0 10.0 82 1012.3 6.9 W 7.6 0.0 6.3
14:17 13.0 9.8 81 1012.0 6.9 W 7.6 0.0 6.3
14:19 13.0 9.8 81 1012.3 6.0 SW 7.6 0.0 6.3
14:20 13.0 9.8 81 1012.3 3.1 SW 7.6 0.0 6.3
14:21 13.0 9.8 81 1012.3 4.5 SW 6.9 0.0 6.3
14:22 13.0 9.8 81 1012.4 8.3 NW 8.3 0.0 6.3
14:23 13.0 9.8 81 1012.2 6.9 SW 8.3 0.0 6.3
14:24 13.0 9.6 80 1012.4 6.9 SW 8.3 0.0 6.3
14:25 13.0 9.6 80 1012.3 4.5 SE 8.3 0.0 6.3
14:26 13.0 9.6 80 1012.3 4.5 W 8.3 0.0 6.3
14:27 13.0 9.6 80 1012.2 6.9 NW 8.3 0.0 6.3
14:28 13.0 9.6 80 1012.2 7.6 NW 8.3 0.0 6.3
14:29 13.0 9.6 80 1012.2 7.6 SW 8.3 0.0 6.3
14:30 13.0 9.6 80 1012.3 6.0 NW 8.3 0.0 6.3
14:31 13.1 9.7 80 1012.3 5.4 NW 8.3 0.0 6.3
14:32 13.7 10.3 80 1012.4 0.0 NW 8.3 0.0 6.3
14:34 14.4 10.8 79 1012.3 0.0 NW 7.6 0.0 6.3
14:35 14.7 11.1 79 1012.3 0.0 NW 7.6 0.0 6.3
14:36 15.1 11.3 78 1012.6 0.0 NW 7.6 0.0 6.3
14:37 15.2 11.4 78 1012.2 4.5 NW 7.6 0.0 6.3
14:38 15.2 11.2 77 1012.3 5.4 N 7.6 0.0 6.3
14:39 15.2 11.2 77 1012.3 5.4 N 7.6 0.0 6.3
14:40 15.0 11.0 77 1012.4 4.5 NW 9.2 0.0 6.3
14:41 14.9 10.7 76 1012.5 4.5 NW 9.2 0.0 6.3
14:42 14.7 10.3 75 1012.4 4.5 W 9.2 0.0 6.3
14:43 14.6 10.2 75 1012.4 3.1 W 9.2 0.0 6.3
14:44 14.3 9.9 75 1012.4 9.2 SW 9.2 0.0 6.3
14:45 14.3 9.9 75 1012.4 6.0 NW 9.2 0.0 6.3
14:46 14.2 9.8 75 1012.3 6.9 NW 9.2 0.0 6.3
14:47 14.2 9.6 74 1012.4 6.9 N 9.2 0.0 6.3
14:49 14.0 9.4 74 1012.3 12.1 N 12.1 0.0 6.3
14:50 14.0 9.4 74 1012.6 8.3 W 12.1 0.0 6.3
14:51 14.0 9.4 74 1012.4 8.3 W 12.1 0.0 6.3
14:52 13.9 9.3 74 1012.8 9.8 W 12.1 0.0 6.3
14:53 13.8 9.0 73 1012.5 8.3 S 12.1 0.0 6.3
14:54 13.8 9.0 73 1012.4 6.0 NE 12.1 0.0 6.3
14:55 13.8 9.0 73 1012.4 6.0 NE 12.1 0.0 6.3
14:56 13.8 9.0 73 1012.5 9.2 N 12.1 0.0 6.3
14:57 13.7 9.0 73 1012.3 8.3 SW 12.1 0.0 6.3
14:58 13.7 9.0 73 1012.5 6.9 NW 12.1 0.0 6.3
14:59 13.7 9.0 73 1012.4 8.3 N 12.1 0.0 6.3
15:00 13.7 9.0 73 1012.4 11.4 SW 12.1 0.0 6.3
15:01 13.7 9.0 73 1012.6 11.4 SW 11.4 0.0 6.3
15:02 13.7 9.0 73 1012.5 11.4 SW 11.4 0.0 6.3
15:04 13.7 9.0 73 1012.6 11.4 SW 11.4 0.0 6.3
15:05 13.7 9.2 74 1012.7 11.4 SW 11.4 0.0 6.3
15:06 13.7 9.2 74 1012.6 11.4 SW 11.4 0.0 6.3
15:07 13.7 9.2 74 1012.7 6.0 W 11.4 0.0 6.3
15:08 13.7 9.2 74 1012.6 7.6 NW 11.4 0.0 6.3
15:09 13.6 9.1 74 1012.9 5.4 W 11.4 0.0 6.3
15:10 13.7 9.2 74 1012.7 6.0 NW 11.4 0.0 6.3
15:11 13.7 9.2 74 1012.7 6.0 NW 11.4 0.0 6.3
15:12 13.7 9.2 74 1012.5 9.8 N 11.4 0.0 6.3
15:13 13.7 9.2 74 1012.4 6.9 NW 11.4 0.0 6.3
15:14 13.7 9.2 74 1012.7 11.4 NW 11.4 0.0 6.3
15:15 13.7 9.2 74 1012.6 11.4 W 11.4 0.0 6.3
15:16 13.7 9.2 74 1012.6 6.0 N 11.4 0.0 6.3
15:17 13.7 9.2 74 1012.6 9.2 N 11.4 0.0 6.3
15:18 13.7 9.2 74 1012.7 10.7 W 11.4 0.0 6.3
15:19 13.7 9.4 75 1012.7 10.7 NW 11.4 0.0 6.3
15:20 13.7 9.2 74 1012.8 8.3 N 11.4 0.0 6.3
15:21 13.7 9.2 74 1012.5 9.8 N 11.4 0.0 6.3
15:22 13.7 9.2 74 1012.5 9.8 NW 11.4 0.0 6.3
15:23 13.7 9.2 74 1012.8 9.2 NW 11.4 0.0 6.3
15:24 13.6 9.1 74 1012.7 10.7 NE 11.4 0.0 6.3
15:25 13.6 9.1 74 1012.7 11.4 NW 11.4 0.0 6.3
15:27 13.7 9.2 74 1012.7 6.9 W 11.4 0.0 6.3
15:28 13.7 9.2 74 1012.6 6.0 SW 11.4 0.0 6.3
15:29 13.8 9.3 74 1013.0 4.5 E 11.4 0.0 6.3
15:30 13.9 9.5 75 1012.8 6.0 W 11.4 0.0 6.3
15:31 13.9 9.3 74 1012.8 5.4 W 11.4 0.0 6.3
15:32 13.9 9.5 75 1012.8 3.8 N 11.4 0.0 6.3
15:33 14.0 9.6 75 1012.5 13.0 N 13.0 0.0 6.3
15:34 14.0 9.4 74 1012.8 12.1 N 13.0 0.0 6.3
15:35 14.0 9.4 74 1012.6 8.3 NW 13.0 0.0 6.3
15:36 14.0 9.4 74 1012.7 6.9 NW 13.0 0.0 6.3
15:37 14.0 9.4 74 1012.9 5.4 NW 13.0 0.0 6.3
15:38 14.0 9.4 74 1012.7 9.2 W 13.0 0.0 6.3
15:39 14.0 9.4 74 1012.8 6.0 N 13.0 0.0 6.3
15:40 13.9 9.3 74 1012.8 6.0 W 13.0 0.0 6.3
15:41 13.9 9.3 74 1012.8 5.4 WNW 13.0 0.0 6.3
15:42 13.8 9.3 74 1012.9 5.4 W 13.0 0.0 6.3
15:43 13.8 9.3 74 1013.0 5.4 NW 12.1 0.0 6.3
15:44 13.8 9.3 74 1012.6 7.6 N 10.7 0.0 6.3
15:45 13.7 9.2 74 1012.9 6.0 NW 10.7 0.0 6.3
15:46 13.7 9.2 74 1012.8 6.0 NE 10.7 0.0 6.3
15:47 13.7 9.2 74 1012.9 8.3 N 10.7 0.0 6.3
15:48 13.7 9.4 75 1013.0 7.6 W 10.7 0.0 6.3
15:49 13.7 9.4 75 1012.9 9.8 N 10.7 0.0 6.3
15:50 13.6 9.3 75 1013.0 9.8 SW 9.8 0.0 6.3
15:51 13.6 9.3 75 1013.0 8.3 NW 9.8 0.0 6.3
15:52 13.6 9.3 75 1012.9 9.2 NW 12.1 0.0 6.3
15:53 13.5 9.2 75 1012.9 4.5 S 12.1 0.0 6.3
15:54 13.5 9.2 75 1013.0 5.4 W 12.1 0.0 6.3
15:55 13.5 9.2 75 1012.7 5.4 W 12.1 0.0 6.3
15:56 13.4 9.1 75 1013.0 5.4 NW 12.1 0.0 6.3
15:58 13.3 9.0 75 1012.9 6.9 N 12.1 0.0 6.3
15:59 13.3 9.0 75 1012.9 6.9 N 12.1 0.0 6.3
16:00 13.3 9.0 75 1012.9 7.6 NW 12.1 0.0 6.3
16:01 13.3 9.0 75 1012.9 7.6 NW 12.1 0.0 6.3
16:02 13.3 9.0 75 1012.8 7.6 NW 7.6 0.0 6.3
16:03 13.3 9.0 75 1012.8 7.6 NW 7.6 0.0 6.3
16:04 13.3 9.0 75 1012.9 7.6 NW 7.6 0.0 6.3
16:05 13.3 9.0 75 1012.8 7.6 NW 7.6 0.0 6.3
16:06 13.1 9.0 76 1012.9 12.1 W 12.1 0.0 6.3
16:07 13.1 9.0 76 1013.1 6.0 NW 12.1 0.0 6.3
16:08 13.1 9.0 76 1012.9 7.6 NW 12.1 0.0 6.3
16:09 13.1 9.0 76 1012.7 6.0 NW 12.1 0.0 6.3
16:10 13.1 9.0 76 1012.9 6.0 NW 12.1 0.0 6.3
16:11 13.1 9.0 76 1012.9 11.4 NE 12.1 0.0 6.3
16:12 13.1 9.0 76 1012.8 4.5 ENE 12.1 0.0 6.3
16:13 13.1 9.0 76 1012.9 6.0 N 12.1 0.0 6.3
16:14 13.2 9.1 76 1012.9 8.3 NW 12.1 0.0 6.3
16:16 13.2 9.1 76 1012.9 4.5 N 11.4 0.0 6.3
16:17 13.2 9.1 76 1013.1 5.4 W 11.4 0.0 6.3
16:18 13.2 9.1 76 1013.0 8.3 W 11.4 0.0 6.3
16:19 13.3 9.2 76 1012.9 10.7 SE 11.4 0.0 6.3
16:20 13.3 9.2 76 1013.1 7.6 S 11.4 0.0 6.3
16:21 13.3 9.2 76 1013.1 9.8 NW 11.4 0.0 6.3
16:22 13.3 9.2 76 1012.9 13.6 NW 13.6 0.0 6.3
16:23 13.3 9.2 76 1012.8 9.2 NW 13.6 0.0 6.3
16:24 13.3 9.2 76 1013.0 11.4 N 13.6 0.0 6.3
16:25 13.3 9.0 75 1013.0 8.3 NW 13.6 0.0 6.3
16:26 13.3 9.0 75 1013.2 8.3 W 13.6 0.0 6.3
16:27 13.3 9.0 75 1013.1 7.6 NW 13.6 0.0 6.3
16:28 13.3 9.0 75 1013.0 4.5 W 13.6 0.0 6.3
16:29 13.3 9.0 75 1013.3 8.3 NW 13.6 0.0 6.3
16:30 13.3 9.0 75 1013.0 4.5 NE 13.6 0.0 6.3
16:32 13.3 9.0 75 1013.2 11.4 NW 11.4 0.0 6.3
16:33 13.3 9.0 75 1013.1 11.4 SW 11.4 0.0 6.3
16:34 13.3 9.0 75 1013.0 8.3 W 11.4 0.0 6.3
16:35 13.3 9.0 75 1013.0 7.6 N 11.4 0.0 6.3
16:36 13.3 9.0 75 1013.1 9.8 SSW 11.4 0.0 6.3
16:37 13.3 9.0 75 1013.0 9.8 NW 11.4 0.0 6.3
16:38 13.3 9.0 75 1013.0 4.5 SW 11.4 0.0 6.3
16:39 13.2 8.9 75 1013.1 6.0 W 11.4 0.0 6.3
16:40 13.2 8.9 75 1013.1 6.0 WSW 11.4 0.0 6.3
16:41 13.2 8.9 75 1013.0 6.0 NW 11.4 0.0 6.3
16:42 13.2 8.9 75 1013.2 11.4 NW 11.4 0.0 6.3
16:43 13.2 8.9 75 1013.4 11.4 NW 11.4 0.0 6.3
16:44 13.2 8.7 74 1013.2 3.8 W 11.4 0.0 6.3
16:45 13.2 8.7 74 1013.1 6.0 W 11.4 0.0 6.3
16:46 13.2 8.7 74 1013.0 9.2 NW 11.4 0.0 6.3
16:47 13.2 8.7 74 1013.3 9.8 SE 11.4 0.0 6.3
16:49 13.2 8.7 74 1013.1 6.9 W 11.4 0.0 6.3
16:50 13.2 8.7 74 1013.4 9.2 W 11.4 0.0 6.3
16:51 13.3 8.8 74 1013.2 6.0 W 11.4 0.0 6.3
16:52 13.3 8.8 74 1013.2 5.4 NE 11.4 0.0 6.3
16:53 13.3 8.8 74 1013.0 6.9 SW 9.8 0.0 6.3
16:54 13.3 8.8 74 1013.2 5.4 N 9.8 0.0 6.3
16:55 13.3 8.8 74 1013.2 5.4 N 9.8 0.0 6.3
16:56 13.3 8.8 74 1013.3 10.7 W 10.7 0.0 6.3
16:57 13.3 8.8 74 1013.1 9.8 NW 10.7 0.0 6.3
16:58 13.3 8.8 74 1013.1 9.2 NW 10.7 0.0 6.3
16:59 13.3 8.8 74 1013.4 9.2 NW 10.7 0.0 6.3
17:00 13.2 8.7 74 1013.1 10.7 NW 10.7 0.0 6.3
17:01 13.2 8.7 74 1013.3 10.7 NW 10.7 0.0 6.3
17:02 13.2 8.7 74 1013.3 10.7 NW 10.7 0.0 6.3
17:03 13.2 8.7 74 1013.3 10.7 NW 10.7 0.0 6.3
17:04 13.2 8.7 74 1013.1 10.7 NW 10.7 0.0 6.3
17:06 13.0 8.5 74 1013.1 6.9 W 10.7 0.0 6.3
17:07 13.0 8.5 74 1013.3 6.9 W 10.7 0.0 6.3
17:08 13.0 8.5 74 1013.2 10.7 NE 10.7 0.0 6.3
17:09 13.0 8.5 74 1013.1 9.2 NW 10.7 0.0 6.3
17:10 13.0 8.5 74 1013.3 8.3 W 10.7 0.0 6.3
17:11 13.0 8.3 73 1013.4 6.9 NW 10.7 0.0 6.3
17:12 13.0 8.3 73 1013.4 9.2 W 10.7 0.0 6.3
17:13 13.0 8.3 73 1013.4 9.2 NW 10.7 0.0 6.3
17:14 13.0 8.5 74 1013.2 6.0 NW 10.7 0.0 6.3
17:15 12.9 8.4 74 1013.3 7.6 NW 10.7 0.0 6.3
17:16 12.9 8.4 74 1013.2 4.5 NW 10.7 0.0 6.3
17:17 12.9 8.4 74 1013.2 5.4 W 10.7 0.0 6.3
17:18 12.9 8.4 74 1013.4 6.0 N 10.7 0.0 6.3
17:19 12.9 8.4 74 1013.2 5.4 SW 9.2 0.0 6.3
17:20 12.9 8.4 74 1013.3 5.4 E 9.2 0.0 6.3
17:21 12.9 8.4 74 1013.1 9.8 N 9.8 0.0 6.3
17:22 12.9 8.4 74 1013.2 10.7 N 10.7 0.0 6.3
17:23 12.9 8.4 74 1013.2 7.6 N 10.7 0.0 6.3
17:24 12.9 8.4 74 1013.1 9.2 NW 10.7 0.0 6.3
17:25 12.9 8.4 74 1013.3 7.6 W 10.7 0.0 6.3
17:26 12.9 8.4 74 1013.3 4.5 NW 10.7 0.0 6.3
17:27 12.9 8.4 74 1013.3 4.5 N 10.7 0.0 6.3
17:28 13.0 8.5 74 1013.4 6.9 SW 10.7 0.0 6.3
17:29 13.0 8.5 74 1013.1 6.9 N 10.7 0.0 6.3
17:30 13.0 8.5 74 1013.2 8.3 W 10.7 0.0 6.3
17:31 13.0 8.5 74 1013.1 6.9 SE 10.7 0.0 6.3
17:32 13.0 8.5 74 1013.2 6.9 N 10.7 0.0 6.3
17:33 13.0 8.5 74 1013.3 14.5 NE 14.5 0.0 6.3
17:35 13.0 8.5 74 1013.0 6.0 SE 14.5 0.0 6.3
17:36 13.0 8.5 74 1013.2 9.8 SW 14.5 0.0 6.3
17:37 13.0 8.5 74 1013.2 6.9 NW 14.5 0.0 6.3
17:38 13.0 8.5 74 1013.0 7.6 NW 14.5 0.0 6.3
17:39 13.0 8.5 74 1013.2 7.6 NE 14.5 0.0 6.3
17:40 13.0 8.5 74 1013.2 9.2 W 14.5 0.0 6.3
17:41 13.0 8.5 74 1013.5 6.0 W 14.5 0.0 6.3
17:42 13.0 8.5 74 1013.1 6.9 W 14.5 0.0 6.3
17:43 13.0 8.5 74 1013.2 8.3 NW 14.5 0.0 6.3
17:44 13.0 8.5 74 1013.1 7.6 N 13.0 0.0 6.3
17:45 13.0 8.3 73 1013.2 7.6 WNW 11.4 0.0 6.3
17:46 13.0 8.3 73 1013.2 7.6 WNW 11.4 0.0 6.3
17:47 13.0 8.3 73 1013.5 6.0 W 11.4 0.0 6.3
17:48 13.0 8.3 73 1013.2 9.2 NW 11.4 0.0 6.3
17:49 13.0 8.3 73 1013.3 9.8 NW 9.8 0.0 6.3
17:50 13.0 8.3 73 1013.2 7.6 N 13.0 0.0 6.3
17:52 13.0 8.3 73 1013.3 7.6 WNW 13.0 0.0 6.3
17:53 13.0 8.3 73 1013.4 9.8 NW 13.0 0.0 6.3
17:54 13.0 8.3 73 1013.3 12.1 NW 13.0 0.0 6.3
17:55 13.0 8.3 73 1013.2 10.7 NW 13.0 0.0 6.3
17:56 13.0 8.3 73 1013.4 6.9 NW 13.0 0.0 6.3
17:57 13.0 8.3 73 1013.3 6.9 NW 13.0 0.0 6.3
17:58 13.0 8.3 73 1013.5 9.8 W 13.0 0.0 6.3
17:59 13.0 8.3 73 1013.1 7.6 SW 13.0 0.0 6.3
18:00 13.0 8.3 73 1013.4 8.3 W 13.0 0.0 6.3
18:01 13.0 8.3 73 1013.2 8.3 W 12.1 0.0 6.3
18:02 13.0 8.3 73 1013.4 8.3 W 12.1 0.0 6.3
18:03 13.0 8.3 73 1013.3 8.3 W 12.1 0.0 6.3
18:04 13.0 8.3 73 1013.3 8.3 W 12.1 0.0 6.3
18:05 13.0 8.3 73 1013.3 8.3 W 12.1 0.0 6.3
18:07 13.0 8.5 74 1013.5 12.1 N 12.1 0.0 6.3
18:08 13.0 8.5 74 1013.6 10.7 N 12.1 0.0 6.3
18:09 13.0 8.5 74 1013.4 13.6 N 13.6 0.0 6.3
18:10 13.0 8.3 73 1013.4 9.8 N 13.6 0.0 6.3
18:11 13.0 8.3 73 1013.6 9.2 N 13.6 0.0 6.3
18:12 13.0 8.3 73 1013.4 10.7 W 13.6 0.0 6.3
18:13 13.0 8.3 73 1013.4 9.2 W 13.6 0.0 6.3
18:14 13.0 8.3 73 1013.4 7.6 NW 13.6 0.0 6.3
18:15 13.0 8.3 73 1013.7 9.2 N 13.6 0.0 6.3
18:16 13.0 8.3 73 1013.5 12.1 NW 13.6 0.0 6.3
18:17 12.9 8.2 73 1013.6 6.0 NW 13.6 0.0 6.3
18:18 12.9 8.2 73 1013.6 9.2 NW 13.6 0.0 6.3
18:19 12.9 8.2 73 1013.4 9.2 N 13.6 0.0 6.3
18:20 12.9 8.2 73 1013.6 10.7 NW 13.6 0.0 6.3
18:21 12.9 8.2 73 1013.6 10.7 NW 12.1 0.0 6.3
18:23 12.8 8.1 73 1013.8 8.3 NW 12.1 0.0 6.3
18:24 12.8 8.1 73 1013.5 6.0 S 12.1 0.0 6.3
18:25 12.8 8.1 73 1013.5 6.0 NW 12.1 0.0 6.3
18:26 12.8 8.1 73 1013.6 6.9 SSE 12.1 0.0 6.3
18:27 12.8 8.1 73 1013.4 6.0 W 12.1 0.0 6.3
18:28 12.8 8.3 74 1013.4 7.6 NW 12.1 0.0 6.3
18:29 12.8 8.3 74 1013.7 8.3 N 12.1 0.0 6.3
18:30 12.8 8.3 74 1013.7 7.6 W 10.7 0.0 6.3
18:31 12.8 8.3 74 1013.9 9.2 NW 10.7 0.0 6.3
18:32 12.9 8.4 74 1013.7 7.6 W 10.7 0.0 6.3
18:33 12.9 8.4 74 1013.7 7.6 E 9.2 0.0 6.3
18:34 12.9 8.4 74 1013.7 7.6 W 9.2 0.0 6.3
18:35 12.9 8.4 74 1013.7 6.0 NW 9.2 0.0 6.3
18:36 12.9 8.2 73 1013.8 5.4 W 9.2 0.0 6.3
18:37 12.9 8.2 73 1013.7 8.3 N 9.2 0.0 6.3
18:38 12.8 8.1 73 1013.6 8.3 SW 9.2 0.0 6.3
18:39 12.8 8.1 73 1013.7 6.0 W 9.2 0.0 6.3
18:41 12.8 8.1 73 1013.6 9.8 W 9.8 0.0 6.3
18:42 12.8 8.1 73 1013.8 6.0 NW 9.8 0.0 6.3
18:43 12.8 8.1 73 1013.8 7.6 NW 9.8 0.0 6.3
18:44 12.8 8.1 73 1013.7 10.7 N 10.7 0.0 6.3
18:45 12.8 8.1 73 1013.8 10.7 W 10.7 0.0 6.3
18:46 12.8 8.1 73 1013.7 10.7 N 10.7 0.0 6.3
18:47 12.8 8.1 73 1013.7 9.8 WNW 10.7 0.0 6.3
18:48 12.8 8.1 73 1014.0 9.8 NW 10.7 0.0 6.3
18:49 12.8 8.1 73 1013.7 13.0 NW 13.0 0.0 6.3
18:50 12.7 8.0 73 1013.7 8.3 NE 13.0 0.0 6.3
18:51 12.7 8.0 73 1013.9 8.3 NW 13.0 0.0 6.3
18:52 12.7 8.0 73 1013.8 10.7 NW 13.0 0.0 6.3
18:53 12.7 8.0 73 1013.8 10.7 N 13.0 0.0 6.3
18:54 12.7 8.0 73 1013.8 8.3 NW 13.0 0.0 6.3
18:55 12.6 7.9 73 1013.7 9.2 NW 13.0 0.0 6.3
18:56 12.6 7.9 73 1013.7 9.2 NW 13.0 0.0 6.3
18:57 12.6 7.9 73 1013.8 9.2 W 13.0 0.0 6.3
18:58 12.6 8.1 74 1013.8 9.2 NW 13.0 0.0 6.3
18:59 12.6 8.1 74 1013.8 7.6 N 13.0 0.0 6.3
19:01 12.6 8.1 74 1013.9 8.3 E 12.1 0.0 6.3
19:02 12.6 8.1 74 1013.8 11.4 W 12.1 0.0 6.3
19:03 12.6 8.1 74 1013.8 6.0 N 12.1 0.0 6.3
19:04 12.6 8.1 74 1013.8 6.0 N 12.1 0.0 6.3
19:05 12.6 8.1 74 1013.9 8.3 N 12.1 0.0 6.3
19:06 12.5 8.0 74 1013.6 9.2 SW 12.1 0.0 6.3
19:07 12.5 8.0 74 1014.0 7.6 NW 11.4 0.0 6.3
19:08 12.5 8.0 74 1013.9 6.0 N 11.4 0.0 6.3
19:09 12.5 8.0 74 1014.0 11.4 NE 11.4 0.0 6.3
19:10 12.5 8.0 74 1013.9 9.2 SE 11.4 0.0 6.3
19:11 12.5 8.2 75 1014.1 12.1 N 12.1 0.0 6.3
19:12 12.5 8.2 75 1013.9 10.7 NW 12.1 0.0 6.3
19:13 12.5 8.2 75 1013.9 10.7 NW 12.1 0.0 6.3
19:14 12.5 8.2 75 1014.1 7.6 W 12.1 0.0 6.3
19:15 12.5 8.2 75 1013.9 6.0 N 12.1 0.0 6.3
19:16 12.5 8.2 75 1013.9 6.9 N 12.1 0.0 6.3
19:17 12.5 8.2 75 1013.9 7.6 N 12.1 0.0 6.3
19:18 12.5 8.2 75 1013.6 7.6 N 12.1 0.0 6.3
19:19 12.5 8.2 75 1014.0 7.6 NW 12.1 0.0 6.3
19:21 12.5 8.2 75 1014.1 6.9 N 12.1 0.0 6.3
19:22 12.5 8.2 75 1014.0 6.9 NW 10.7 0.0 6.3
19:23 12.5 8.2 75 1013.9 10.7 SW 10.7 0.0 6.3
19:24 12.5 8.2 75 1013.9 6.0 N 10.7 0.0 6.3
19:25 12.5 8.2 75 1014.0 6.9 NW 10.7 0.0 6.3
19:26 12.4 8.9 79 1014.0 9.8 N 10.7 0.0 6.3
19:27 12.4 8.9 79 1014.1 9.8 N 10.7 0.0 6.3
19:28 12.4 8.9 79 1014.2 6.9 W 10.7 0.0 6.3
19:29 12.4 8.9 79 1014.1 11.4 NW 11.4 0.0 6.3
19:30 12.4 8.9 79 1014.0 7.6 SW 11.4 0.0 6.3
19:32 12.4 8.9 79 1014.2 7.6 NW 11.4 0.0 6.3
19:33 12.4 8.9 79 1014.1 7.6 NW 11.4 0.0 6.3
19:34 12.4 8.9 79 1014.2 10.7 NW 11.4 0.0 6.3
19:35 12.4 8.9 79 1014.0 6.9 W 11.4 0.0 6.3
19:36 12.3 8.8 79 1013.9 9.2 N 11.4 0.0 6.3
19:37 12.3 8.8 79 1014.1 9.2 NE 11.4 0.0 6.3
19:38 12.3 8.8 79 1014.2 6.0 NW 11.4 0.0 6.3
19:39 12.3 8.8 79 1014.1 6.9 E 11.4 0.0 6.3
19:40 12.3 8.8 79 1014.2 7.6 SE 11.4 0.0 6.3
19:41 12.3 8.8 79 1014.0 10.7 NW 11.4 0.0 6.3
19:42 12.3 8.8 79 1014.1 10.7 E 11.4 0.0 6.3
19:43 12.3 8.8 79 1014.2 9.2 NW 11.4 0.0 6.3
19:44 12.3 9.0 80 1014.3 10.7 NW 11.4 0.0 6.3
19:45 12.3 9.0 80 1014.1 3.1 NE 10.7 0.0 6.3
19:46 12.3 9.0 80 1014.0 9.8 NW 10.7 0.0 6.3
19:47 12.3 9.0 80 1014.2 5.4 NW 10.7 0.0 6.3
19:48 12.3 9.0 80 1014.0 11.4 SE 11.4 0.0 6.3
19:50 12.2 8.9 80 1014.2 5.4 NW 12.1 0.0 6.3
19:51 12.2 8.9 80 1014.1 8.3 NW 12.1 0.0 6.3
19:52 12.2 8.9 80 1014.2 6.9 W 12.1 0.0 6.3
19:53 12.2 8.9 80 1014.2 6.9 W 12.1 0.0 6.3
19:54 12.2 8.9 80 1014.4 5.4 NW 12.1 0.0 6.3
19:55 12.2 8.9 80 1014.4 10.7 NW 12.1 0.0 6.3
19:56 12.2 8.9 80 1014.2 9.2 N 12.1 0.0 6.3
19:57 12.2 8.9 80 1014.4 9.2 NE 12.1 0.0 6.3
19:58 12.2 8.9 80 1014.4 7.6 NW 12.1 0.0 6.3
19:59 12.2 8.9 80 1014.2 10.7 N 12.1 0.0 6.3
20:00 12.2 8.9 80 1014.2 9.8 N 10.7 0.0 6.3
20:01 12.2 8.9 80 1014.2 9.8 N 10.7 0.0 6.3
20:02 12.2 8.9 80 1014.2 9.8 N 10.7 0.0 6.3
20:03 12.2 8.9 80 1014.2 9.8 N 10.7 0.0 6.3
20:04 12.2 8.9 80 1014.3 9.8 N 10.7 0.0 6.3
20:05 12.2 8.9 80 1014.3 9.8 N 10.7 0.0 6.3
20:06 12.2 8.9 80 1014.3 9.8 NW 10.7 0.0 6.3
20:07 12.2 8.9 80 1014.3 8.3 W 10.7 0.0 6.3
20:08 12.2 8.9 80 1014.3 4.5 N 10.7 0.0 6.3
20:10 12.2 8.9 80 1014.4 13.0 NW 13.0 0.0 6.3
20:11 12.2 8.9 80 1014.5 13.0 NW 13.0 0.0 6.3
20:12 12.2 8.9 80 1014.3 5.4 SW 13.0 0.0 6.3
20:13 12.2 8.9 80 1014.2 6.0 W 13.0 0.0 6.3
20:14 12.1 8.8 80 1014.4 9.2 N 13.0 0.0 6.3
20:15 12.1 8.8 80 1014.5 5.4 NE 13.0 0.0 6.3
20:16 12.1 8.8 80 1014.2 9.8 NW 13.0 0.0 6.3
20:17 12.1 8.8 80 1014.2 6.0 NW 13.0 0.0 6.3
20:18 12.1 8.8 80 1014.3 7.6 N 13.0 0.0 6.3
20:19 12.1 8.8 80 1014.4 6.9 NW 13.0 0.0 6.3
20:20 12.1 8.8 80 1014.5 5.4 SW 13.0 0.0 6.3
20:21 12.1 8.8 80 1014.4 9.8 W 13.0 0.0 6.3
20:22 12.1 8.8 80 1014.4 9.2 NW 9.8 0.0 6.3
20:23 12.1 8.8 80 1014.6 6.0 WNW 9.8 0.0 6.3
20:24 12.1 8.8 80 1014.4 9.8 NW 9.8 0.0 6.3
20:25 12.1 8.8 80 1014.6 6.9 NW 9.8 0.0 6.3
20:26 12.1 8.8 80 1014.2 7.6 NW 9.8 0.0 6.3
20:27 12.1 8.8 80 1014.6 8.3 NW 9.8 0.0 6.3
20:29 12.1 8.9 81 1014.5 6.9 W 9.8 0.0 6.3
20:30 12.1 8.9 81 1014.4 6.0 W 9.8 0.0 6.3
20:31 12.1 8.9 81 1014.5 6.0 W 9.8 0.0 6.3
20:32 12.0 8.8 81 1014.4 6.0 N 9.8 0.0 6.3
20:33 12.0 8.8 81 1014.5 6.0 NW 9.8 0.0 6.3
20:34 12.0 8.8 81 1014.4 5.4 W 9.8 0.0 6.3
20:35 12.0 8.8 81 1014.5 5.4 W 8.3 0.0 6.3
20:36 12.0 8.8 81 1014.3 5.4 NW 8.3 0.0 6.3
20:37 12.0 8.8 81 1014.3 6.0 NW 8.3 0.0 6.3
20:38 12.0 8.8 81 1014.3 6.9 NW 8.3 0.0 6.3
20:39 12.0 8.8 81 1014.3 3.8 N 6.9 0.0 6.3
20:40 12.0 8.8 81 1014.4 5.4 NW 6.9 0.0 6.3
20:41 12.0 8.8 81 1014.5 6.0 N 6.9 0.0 6.3
20:42 12.0 8.8 81 1014.4 5.4 N 6.9 0.0 6.3
20:43 12.0 8.8 81 1014.3 5.4 W 6.9 0.0 6.3
20:44 11.9 8.7 81 1014.5 5.4 N 6.9 0.0 6.3
20:45 11.9 8.7 81 1014.3 5.4 N 6.9 0.0 6.3
20:46 11.9 8.7 81 1014.2 4.5 N 6.9 0.0 6.3
20:48 11.9 8.7 81 1014.4 7.6 S 7.6 0.0 6.3
20:49 11.9 8.7 81 1014.3 5.4 W 7.6 0.0 6.3
20:50 11.8 8.6 81 1014.4 3.1 NW 8.3 0.0 6.3
20:51 11.8 8.6 81 1014.3 6.0 NW 8.3 0.0 6.3
20:52 11.8 8.6 81 1014.4 7.6 N 8.3 0.0 6.3
20:53 11.8 8.6 81 1014.3 5.4 SE 8.3 0.0 6.3
20:54 11.7 8.6 81 1014.3 7.6 N 8.3 0.0 6.3
20:55 11.7 8.6 81 1014.4 7.6 WNW 8.3 0.0 6.3
20:56 11.7 8.6 81 1014.4 7.6 WNW 8.3 0.0 6.3
20:57 11.7 8.6 81 1014.3 7.6 WNW 8.3 0.0 6.3
20:58 11.7 8.6 81 1014.3 7.6 WNW 8.3 0.0 6.3
20:59 11.6 8.5 81 1014.5 2.2 NW 8.3 0.0 6.3
21:00 11.6 8.5 81 1014.1 2.2 NW 8.3 0.0 6.3
21:01 11.6 8.5 81 1014.3 2.2 NW 7.6 0.0 6.3
21:02 11.6 8.5 81 1014.3 2.2 NW 7.6 0.0 6.3
21:03 11.6 8.5 81 1014.4 2.2 NW 7.6 0.0 6.3
21:04 11.6 8.5 81 1014.5 2.2 NW 7.6 0.0 6.3
21:05 11.6 8.5 81 1014.2 2.2 NW 7.6 0.0 6.3
21:07 11.4 8.4 82 1014.2 3.1 NW 7.6 0.0 6.3
21:08 11.4 8.4 82 1014.2 2.2 NW 3.1 0.0 6.3
21:09 11.4 8.4 82 1014.2 3.1 NW 3.1 0.0 6.3
21:10 11.4 8.4 82 1014.2 3.1 NW 3.1 0.0 6.3
21:11 11.3 8.3 82 1014.3 6.0 NW 6.0 0.0 6.3
21:12 11.3 8.3 82 1014.4 3.1 NW 6.0 0.0 6.3
21:13 11.3 8.3 82 1014.4 3.1 NW 6.0 0.0 6.3
21:14 11.3 8.3 82 1014.4 3.1 NW 6.0 0.0 6.3
21:15 11.2 8.2 82 1014.4 6.0 NW 6.0 0.0 6.3
21:16 11.2 8.2 82 1014.5 6.0 NW 6.0 0.0 6.3
21:17 11.1 8.1 82 1014.5 3.8 W 6.0 0.0 6.3
21:18 11.1 8.1 82 1014.5 3.8 W 6.0 0.0 6.3
21:19 11.1 8.1 82 1014.5 2.2 W 6.0 0.0 6.3
21:20 11.1 8.1 82 1014.2 3.8 NW 6.0 0.0 6.3
21:21 11.1 8.1 82 1014.3 3.8 NW 6.0 0.0 6.3
21:22 11.1 8.1 82 1014.4 3.8 NW 6.0 0.0 6.3
21:23 11.0 8.2 83 1014.4 4.5 W 6.0 0.0 6.3
21:24 11.0 8.2 83 1014.3 3.1 NW 6.0 0.0 6.3
21:25 11.0 8.2 83 1014.5 4.5 NW 6.0 0.0 6.3
21:26 11.0 8.2 83 1014.5 4.5 NW 6.0 0.0 6.3
21:27 11.0 8.2 83 1014.6 3.1 NW 4.5 0.0 6.3
21:28 11.0 8.2 83 1014.8 6.9 N 6.9 0.0 6.3
21:29 10.9 8.1 83 1014.6 8.3 N 8.3 0.0 6.3
21:30 10.9 8.1 83 1014.6 8.3 N 8.3 0.0 6.3
21:31 10.9 8.1 83 1014.5 8.3 W 8.3 0.0 6.3
21:32 10.9 8.1 83 1014.5 4.5 W 8.3 0.0 6.3
21:33 10.9 8.1 83 1014.6 4.5 W 8.3 0.0 6.3
21:34 10.9 8.1 83 1014.6 2.2 SW 8.3 0.0 6.3
21:35 10.8 8.0 83 1014.5 6.0 SW 8.3 0.0 6.3
21:36 10.8 8.0 83 1014.5 6.0 NW 8.3 0.0 6.3
21:37 10.8 8.0 83 1014.4 4.5 NW 8.3 0.0 6.3
21:38 10.8 8.2 84 1014.6 7.6 WNW 8.3 0.0 6.3
21:39 10.8 8.2 84 1014.5 5.4 W 8.3 0.0 6.3
21:41 10.7 8.1 84 1014.7 2.2 NW 7.6 0.0 6.3
21:42 10.7 8.1 84 1014.9 2.2 W 7.6 0.0 6.3
21:43 10.7 8.1 84 1014.6 3.8 W 7.6 0.0 6.3
21:44 10.7 8.1 84 1014.7 3.8 NW 7.6 0.0 6.3
21:45 10.7 8.1 84 1014.7 5.4 NW 7.6 0.0 6.3
21:46 10.7 8.1 84 1014.8 5.4 NW 7.6 0.0 6.3
21:47 10.7 8.1 84 1015.1 3.8 N 7.6 0.0 6.3
21:48 10.7 8.1 84 1014.8 3.1 NW 5.4 0.0 6.3
21:49 10.7 8.3 85 1014.8 3.1 W 5.4 0.0 6.3
21:50 10.7 8.3 85 1015.0 3.8 SW 5.4 0.0 6.3
21:51 10.7 8.3 85 1014.9 6.0 N 6.0 0.0 6.3
21:52 10.7 8.3 85 1014.7 6.0 W 6.0 0.0 6.3
21:53 10.7 8.3 85 1014.8 6.0 W 6.0 0.0 6.3
21:54 10.7 8.3 85 1014.7 6.0 W 6.0 0.0 6.3
21:55 10.7 8.3 85 1014.8 3.8 SW 6.0 0.0 6.3
21:56 10.7 8.3 85 1014.9 3.8 NW 6.0 0.0 6.3
21:57 10.6 8.2 85 1014.7 6.0 W 6.0 0.0 6.3
21:59 10.6 8.2 85 1015.0 6.0 NW 6.0 0.0 6.3
22:00 10.6 8.2 85 1014.8 3.8 SW 6.0 0.0 6.3
22:01 10.6 8.2 85 1014.9 3.8 SW 6.0 0.0 6.3
22:02 10.6 8.2 85 1014.8 3.8 SW 6.0 0.0 6.3
22:03 10.6 8.2 85 1014.8 3.8 SW 6.0 0.0 6.3
22:04 10.6 8.2 85 1014.8 3.8 SW 6.0 0.0 6.3
22:05 10.6 8.2 85 1014.8 3.8 SW 6.0 0.0 6.3
22:06 10.6 8.2 85 1014.8 3.8 SW 6.0 0.0 6.3
22:07 10.6 8.2 85 1014.8 3.8 SW 6.0 0.0 6.3
22:08 10.5 8.3 86 1014.7 5.4 NW 6.0 0.0 6.3
22:09 10.5 8.3 86 1014.8 6.9 NE 6.9 0.0 6.3
22:10 10.5 8.3 86 1014.6 4.5 SW 6.9 0.0 6.3
22:11 10.5 8.3 86 1014.7 4.5 NW 6.9 0.0 6.3
22:12 10.5 8.3 86 1014.9 5.4 NW 6.9 0.0 6.3
22:13 10.5 8.3 86 1014.9 6.0 NW 6.9 0.0 6.3
22:14 10.5 8.3 86 1015.0 4.5 W 6.9 0.0 6.3
22:15 10.5 8.3 86 1014.7 4.5 W 6.9 0.0 6.3
22:17 10.5 8.3 86 1014.7 3.1 E 6.9 0.0 6.3
22:18 10.5 8.3 86 1014.9 3.1 NE 6.9 0.0 6.3
22:19 10.5 8.3 86 1014.7 5.4 E 6.0 0.0 6.3
22:20 10.5 8.3 86 1015.0 5.4 E 6.0 0.0 6.3
22:21 10.4 8.2 86 1015.0 5.4 SW 6.0 0.0 6.3
22:22 10.4 8.2 86 1014.9 4.5 W 6.0 0.0 6.3
22:23 10.4 8.2 86 1014.9 4.5 W 6.0 0.0 6.3
22:24 10.4 8.2 86 1015.1 3.1 NW 5.4 0.0 6.3
22:25 10.4 8.2 86 1015.1 5.4 N 5.4 0.0 6.3
22:26 10.4 8.2 86 1014.8 4.5 NW 5.4 0.0 6.3
22:27 10.4 8.3 87 1015.0 6.0 N 6.0 0.0 6.3
22:28 10.4 8.3 87 1015.1 2.2 NW 6.0 0.0 6.3
22:29 10.4 8.3 87 1014.9 6.0 NW 6.0 0.0 6.3
22:30 10.4 8.3 87 1014.9 6.0 NW 6.0 0.0 6.3
22:31 10.4 8.3 87 1015.0 3.1 NW 6.0 0.0 6.3
22:32 10.4 8.3 87 1015.0 4.5 W 6.0 0.0 6.3
22:34 10.4 8.3 87 1015.1 3.8 W 6.0 0.0 6.3
22:35 10.4 8.3 87 1015.1 1.6 NW 6.0 0.0 6.3
22:36 10.4 8.3 87 1015.1 3.1 W 6.0 0.0 6.3
22:37 10.3 8.2 87 1015.2 4.5 N 6.0 0.0 6.3
22:38 10.3 8.2 87 1014.9 1.6 W 6.0 0.0 6.3
22:39 10.3 8.2 87 1015.0 5.4 NW 6.0 0.0 6.3
22:40 10.3 8.2 87 1014.9 5.4 WSW 5.4 0.0 6.3
22:41 10.3 8.2 87 1015.0 3.8 W 5.4 0.0 6.3
22:42 10.3 8.2 87 1015.0 3.8 W 5.4 0.0 6.3
22:43 10.3 8.2 87 1015.0 3.8 W 5.4 0.0 6.3
22:44 10.3 8.2 87 1014.9 3.8 W 5.4 0.0 6.3
22:45 10.2 8.1 87 1014.9 3.8 N 5.4 0.0 6.3
22:46 10.2 8.1 87 1015.0 3.8 NW 5.4 0.0 6.3
22:47 10.2 8.1 87 1015.2 3.8 NW 5.4 0.0 6.3
22:48 10.2 8.1 87 1015.2 3.8 N 5.4 0.0 6.3
22:49 10.2 8.1 87 1015.0 3.8 W 5.4 0.0 6.3
22:51 10.2 8.1 87 1015.2 4.5 N 4.5 0.0 6.3
22:52 10.2 8.1 87 1015.1 3.1 W 4.5 0.0 6.3
22:53 10.1 8.0 87 1015.4 3.1 W 4.5 0.0 6.3
22:54 10.1 8.0 87 1015.1 3.1 NW 4.5 0.0 6.3
22:55 10.1 8.0 87 1015.1 2.2 NW 4.5 0.0 6.3
22:56 10.1 8.0 87 1015.1 4.5 NW 4.5 0.0 6.3
22:57 10.1 8.0 87 1015.2 3.8 SW 6.0 0.0 6.3
22:58 10.1 8.0 87 1015.2 4.5 NW 6.0 0.0 6.3
22:59 10.1 8.0 87 1015.2 4.5 NW 6.0 0.0 6.3
23:00 10.1 8.0 87 1015.1 5.4 S 6.9 0.0 6.3
23:01 10.1 8.0 87 1015.3 5.4 S 6.9 0.0 6.3
23:02 10.1 8.0 87 1015.1 5.4 S 6.9 0.0 6.3
23:03 10.1 8.0 87 1015.3 5.4 S 6.9 0.0 6.3
23:04 10.1 8.0 87 1015.1 5.4 S 6.9 0.0 6.3
23:05 10.1 8.0 87 1015.1 5.4 S 6.9 0.0 6.3
23:06 10.1 8.0 87 1015.0 5.4 S 6.9 0.0 6.3
23:07 10.1 8.2 88 1015.5 5.4 NE 6.9 0.0 6.3
23:08 10.1 8.2 88 1015.1 4.5 NW 6.9 0.0 6.3
23:09 10.1 8.2 88 1015.1 6.9 N 6.9 0.0 6.3
23:11 10.1 8.2 88 1015.2 4.5 N 6.9 0.0 6.3
23:12 10.1 8.2 88 1015.2 4.5 NE 6.9 0.0 6.3
23:13 10.1 8.4 89 1015.3 7.6 WNW 7.6 0.0 6.3
23:14 10.1 8.4 89 1015.3 6.9 NW 7.6 0.0 6.3
23:15 10.2 8.5 89 1015.2 3.1 N 7.6 0.0 6.3
23:16 10.2 8.5 89 1015.3 3.8 NW 7.6 0.0 6.3
23:17 10.2 8.5 89 1015.5 3.1 NW 7.6 0.0 6.3
23:18 10.2 8.5 89 1015.3 4.5 E 7.6 0.0 6.3
23:19 10.2 8.5 89 1015.3 6.0 NW 7.6 0.0 6.3
23:20 10.2 8.5 89 1015.4 5.4 NW 7.6 0.0 6.3
23:21 10.2 8.5 89 1015.4 4.5 NW 7.6 0.0 6.3
23:22 10.2 8.5 89 1015.2 3.8 W 7.6 0.0 6.3
23:23 10.2 8.5 89 1015.2 3.8 N 7.6 0.0 6.3
23:24 10.2 8.5 89 1015.3 6.9 W 6.9 0.0 6.3
23:25 10.2 8.5 89 1015.3 6.9 N 6.9 0.0 6.3
23:26 10.2 8.6 90 1015.4 6.0 NW 6.9 0.0 6.3
23:27 10.2 8.6 90 1015.4 3.8 NW 6.9 0.0 6.3
23:28 10.2 8.6 90 1015.4 3.8 NW 6.9 0.0 6.3
23:29 10.2 8.6 90 1015.5 7.6 NW 7.6 0.0 6.3
23:30 10.3 8.7 90 1015.6 6.0 E 7.6 0.0 6.3
23:31 10.3 8.7 90 1015.6 6.9 W 7.6 0.0 6.3
23:32 10.3 8.7 90 1015.4 6.0 E 7.6 0.0 6.3
23:33 10.3 8.7 90 1015.3 3.8 N 7.6 0.0 6.3
23:34 10.3 8.7 90 1015.6 3.8 NE 7.6 0.0 6.3
23:35 10.3 8.7 90 1015.6 3.8 NE 7.6 0.0 6.3
23:36 10.3 8.7 90 1015.7 3.8 NW 7.6 0.0 6.3
23:37 10.4 8.8 90 1015.5 5.4 N 7.6 0.0 6.3
23:38 10.4 8.8 90 1015.5 5.4 W 7.6 0.0 6.3
23:39 10.4 8.8 90 1015.6 3.8 E 7.6 0.0 6.3
23:40 10.4 8.8 90 1015.4 3.1 W 6.9 0.0 6.3
23:41 10.4 8.8 90 1015.4 3.1 W 6.9 0.0 6.3
23:42 10.4 8.8 90 1015.5 3.1 W 6.0 0.0 6.3
23:43 10.4 8.8 90 1015.3 6.0 W 6.0 0.0 6.3
23:44 10.5 8.9 90 1015.4 5.4 NW 6.0 0.0 6.3
23:45 10.5 8.9 90 1015.5 5.4 N 6.0 0.0 6.3
23:47 10.5 8.9 90 1015.6 4.5 N 6.0 0.0 6.3
23:48 10.5 8.9 90 1015.5 4.5 W 6.0 0.0 6.3
23:49 10.5 8.9 90 1015.5 3.8 NW 6.0 0.0 6.3
23:50 10.5 8.9 90 1015.4 6.0 NW 6.0 0.0 6.3
23:51 10.5 8.9 90 1015.5 3.8 W 6.0 0.0 6.3
23:52 10.5 8.9 90 1015.5 5.4 W 6.0 0.0 6.3
23:53 10.5 8.9 90 1015.5 3.8 NW 6.0 0.0 6.3
23:54 10.5 8.9 90 1015.6 3.8 SW 6.0 0.0 6.3
23:55 10.5 8.9 90 1015.6 3.8 SW 6.0 0.0 6.3
23:56 10.5 8.9 90 1015.4 4.5 W 6.0 0.0 6.3
23:57 10.5 8.9 90 1015.6 6.0 NW 6.0 0.0 6.3
23:58 10.6 9.0 90 1015.6 3.1 W 6.0 0.0 6.3
23:59 10.6 9.0 90 1015.5 2.2 NW 6.0 0.0 6.3

 

 

UK - WEATHER STATION TOPSITES - UK World Weather Websites

Copyright © Carnkie Weather 2009 - 2020.